Wetterdaten: Freitag, 08.04.2022
Datum Zeit Temp. Aussen Temp. o. S. Temp +5cm Feuchte Auss Luftdruck Regen Sonnenschein Regendauer Solar Windben Empfang
08.04.2022 00:00 6,9 C 6,1 C 2,8 C 87 % 994,7 hPa 0,0 l/m 0 min 0 min 0 W/m 19,3 km/h (3 Bft) 93,62 %
08.04.2022 00:02 6,9 C 6,1 C 2,8 C 87 % 994,6 hPa 0,0 l/m 0 min 0 min 0 W/m 19,3 km/h (3 Bft) 90,00 %
08.04.2022 00:04 6,9 C 6,1 C 2,8 C 87 % 994,8 hPa 0,0 l/m 0 min 0 min 0 W/m 19,3 km/h (3 Bft) 96,00 %
08.04.2022 00:08 6,9 C 6,1 C 2,8 C 87 % 994,9 hPa 0,0 l/m 0 min 0 min 0 W/m 19,3 km/h (3 Bft) 96,12 %
08.04.2022 00:10 6,9 C 6,1 C 2,8 C 87 % 994,9 hPa 0,0 l/m 0 min 0 min 0 W/m 16,1 km/h (3 Bft) 97,96 %
08.04.2022 00:12 7,0 C 6,1 C 3,3 C 87 % 995,0 hPa 0,0 l/m 0 min 0 min 0 W/m 29,0 km/h (5 Bft) 100,00 %
08.04.2022 00:14 7,0 C 6,1 C 3,3 C 87 % 995,2 hPa 0,0 l/m 0 min 0 min 0 W/m 19,3 km/h (3 Bft) 100,00 %
08.04.2022 00:16 7,1 C 6,1 C 3,3 C 87 % 995,1 hPa 0,0 l/m 0 min 0 min 0 W/m 16,1 km/h (3 Bft) 100,00 %
08.04.2022 00:18 7,1 C 6,1 C 3,3 C 87 % 995,2 hPa 0,0 l/m 0 min 0 min 0 W/m 16,1 km/h (3 Bft) 97,96 %
08.04.2022 00:20 7,1 C 6,1 C 3,3 C 87 % 995,2 hPa 0,0 l/m 0 min 0 min 0 W/m 22,5 km/h (4 Bft) 100,00 %
08.04.2022 00:22 7,1 C 6,7 C 3,3 C 87 % 995,2 hPa 0,0 l/m 0 min 0 min 0 W/m 22,5 km/h (4 Bft) 100,00 %
08.04.2022 00:24 7,1 C 6,7 C 3,3 C 87 % 995,2 hPa 0,0 l/m 0 min 0 min 0 W/m 25,7 km/h (4 Bft) 100,00 %
08.04.2022 00:26 7,1 C 6,1 C 3,3 C 86 % 995,3 hPa 0,0 l/m 0 min 0 min 0 W/m 16,1 km/h (3 Bft) 98,00 %
08.04.2022 00:28 7,1 C 6,1 C 3,3 C 86 % 995,2 hPa 0,0 l/m 0 min 0 min 0 W/m 19,3 km/h (3 Bft) 100,00 %
08.04.2022 00:30 7,1 C 6,1 C 3,3 C 86 % 995,3 hPa 0,0 l/m 0 min 2 min 0 W/m 22,5 km/h (4 Bft) 100,00 %
08.04.2022 00:32 7,1 C 6,1 C 3,3 C 86 % 995,4 hPa 0,0 l/m 0 min 0 min 0 W/m 19,3 km/h (3 Bft) 100,00 %
08.04.2022 00:34 7,1 C 6,1 C 3,3 C 86 % 995,3 hPa 0,0 l/m 0 min 0 min 0 W/m 16,1 km/h (3 Bft) 100,00 %
08.04.2022 00:36 7,1 C 6,1 C 3,3 C 86 % 995,4 hPa 0,0 l/m 0 min 0 min 0 W/m 16,1 km/h (3 Bft) 100,00 %
08.04.2022 00:38 7,1 C 6,1 C 3,3 C 86 % 995,4 hPa 0,0 l/m 0 min 0 min 0 W/m 25,7 km/h (4 Bft) 100,00 %
08.04.2022 00:40 7,1 C 6,1 C 3,3 C 86 % 995,5 hPa 0,0 l/m 0 min 0 min 0 W/m 19,3 km/h (3 Bft) 100,00 %
08.04.2022 00:42 7,1 C 6,1 C 3,3 C 86 % 995,5 hPa 0,0 l/m 0 min 0 min 0 W/m 19,3 km/h (3 Bft) 98,15 %
08.04.2022 00:44 7,1 C 6,1 C 3,3 C 86 % 995,6 hPa 0,0 l/m 0 min 0 min 0 W/m 12,9 km/h (3 Bft) 100,00 %
08.04.2022 00:46 7,1 C 6,1 C 3,3 C 86 % 995,6 hPa 0,0 l/m 0 min 0 min 0 W/m 12,9 km/h (3 Bft) 100,00 %
08.04.2022 00:48 7,1 C 6,1 C 3,3 C 86 % 995,7 hPa 0,0 l/m 0 min 0 min 0 W/m 22,5 km/h (4 Bft) 100,00 %
08.04.2022 00:50 7,1 C 6,1 C 3,3 C 86 % 995,8 hPa 0,0 l/m 0 min 0 min 0 W/m 22,5 km/h (4 Bft) 97,87 %
08.04.2022 00:52 7,1 C 6,1 C 3,3 C 86 % 995,8 hPa 0,0 l/m 0 min 0 min 0 W/m 19,3 km/h (3 Bft) 97,14 %
08.04.2022 00:54 7,1 C 6,1 C 3,3 C 86 % 995,8 hPa 0,0 l/m 0 min 0 min 0 W/m 25,7 km/h (4 Bft) 100,00 %
08.04.2022 00:56 7,1 C 6,1 C 3,3 C 86 % 995,9 hPa 0,0 l/m 0 min 0 min 0 W/m 22,5 km/h (4 Bft) 100,00 %
08.04.2022 00:58 7,1 C 6,1 C 3,3 C 86 % 996,0 hPa 0,0 l/m 0 min 0 min 0 W/m 22,5 km/h (4 Bft) 100,00 %
08.04.2022 01:00 7,1 C 6,1 C 3,3 C 86 % 995,9 hPa 0,0 l/m 0 min 0 min 0 W/m 19,3 km/h (3 Bft) 100,00 %
08.04.2022 01:02 7,1 C 6,1 C 3,3 C 86 % 996,0 hPa 0,0 l/m 0 min 0 min 0 W/m 25,7 km/h (4 Bft) 100,00 %
08.04.2022 01:04 7,1 C 6,1 C 3,3 C 86 % 996,1 hPa 0,0 l/m 0 min 0 min 0 W/m 19,3 km/h (3 Bft) 100,00 %
08.04.2022 01:06 7,1 C 6,1 C 3,3 C 86 % 996,2 hPa 0,0 l/m 0 min 0 min 0 W/m 22,5 km/h (4 Bft) 100,00 %
08.04.2022 01:08 7,1 C 6,1 C 3,3 C 86 % 996,1 hPa 0,0 l/m 0 min 0 min 0 W/m 25,7 km/h (4 Bft) 97,83 %
08.04.2022 01:10 7,1 C 6,1 C 3,3 C 86 % 996,2 hPa 0,0 l/m 0 min 0 min 0 W/m 16,1 km/h (3 Bft) 100,00 %
08.04.2022 01:12 7,1 C 6,1 C 3,3 C 86 % 996,1 hPa 0,0 l/m 0 min 0 min 0 W/m 22,5 km/h (4 Bft) 100,00 %
08.04.2022 01:14 7,0 C 6,1 C 3,3 C 86 % 996,3 hPa 0,0 l/m 0 min 0 min 0 W/m 22,5 km/h (4 Bft) 100,00 %
08.04.2022 01:16 6,9 C 6,1 C 3,3 C 86 % 996,4 hPa 0,0 l/m 0 min 0 min 0 W/m 22,5 km/h (4 Bft) 100,00 %
08.04.2022 01:18 6,9 C 6,1 C 3,3 C 86 % 996,3 hPa 0,0 l/m 0 min 0 min 0 W/m 25,7 km/h (4 Bft) 100,00 %
08.04.2022 01:20 6,9 C 6,1 C 3,3 C 85 % 996,4 hPa 0,0 l/m 0 min 0 min 0 W/m 25,7 km/h (4 Bft) 100,00 %
08.04.2022 01:22 6,9 C 6,1 C 3,3 C 85 % 996,6 hPa 0,0 l/m 0 min 0 min 0 W/m 25,7 km/h (4 Bft) 97,87 %
08.04.2022 01:24 6,9 C 6,1 C 3,3 C 85 % 996,4 hPa 0,0 l/m 0 min 0 min 0 W/m 32,2 km/h (5 Bft) 97,87 %
08.04.2022 01:26 6,9 C 6,1 C 3,3 C 85 % 996,5 hPa 0,0 l/m 0 min 0 min 0 W/m 29,0 km/h (5 Bft) 98,15 %
08.04.2022 01:28 6,9 C 6,1 C 3,3 C 85 % 996,6 hPa 0,0 l/m 0 min 0 min 0 W/m 35,4 km/h (5 Bft) 100,00 %
08.04.2022 01:30 6,9 C 6,1 C 3,3 C 85 % 996,6 hPa 0,0 l/m 0 min 0 min 0 W/m 19,3 km/h (3 Bft) 97,37 %
08.04.2022 01:32 6,9 C 6,1 C 3,3 C 85 % 996,7 hPa 0,0 l/m 0 min 0 min 0 W/m 16,1 km/h (3 Bft) 97,83 %
08.04.2022 01:34 6,8 C 6,1 C 3,3 C 85 % 996,6 hPa 0,0 l/m 0 min 0 min 0 W/m 41,8 km/h (6 Bft) 96,30 %
08.04.2022 01:36 6,8 C 6,1 C 3,3 C 85 % 996,8 hPa 0,0 l/m 0 min 0 min 0 W/m 25,7 km/h (4 Bft) 95,74 %
08.04.2022 01:38 6,8 C 6,1 C 3,3 C 85 % 997,0 hPa 0,0 l/m 0 min 0 min 0 W/m 38,6 km/h (5 Bft) 92,00 %
08.04.2022 01:40 6,8 C 6,1 C 2,8 C 85 % 996,7 hPa 0,0 l/m 0 min 0 min 0 W/m 32,2 km/h (5 Bft) 95,65 %
08.04.2022 01:42 6,8 C 6,1 C 2,8 C 84 % 997,0 hPa 0,0 l/m 0 min 0 min 0 W/m 32,2 km/h (5 Bft) 93,62 %
08.04.2022 01:44 6,7 C 6,1 C 2,8 C 85 % 996,8 hPa 0,0 l/m 0 min 0 min 0 W/m 35,4 km/h (5 Bft) 97,30 %
08.04.2022 01:46 6,7 C 5,6 C 2,8 C 85 % 996,9 hPa 0,0 l/m 0 min 0 min 0 W/m 19,3 km/h (3 Bft) 95,74 %
08.04.2022 01:48 6,6 C 5,6 C 2,8 C 85 % 997,0 hPa 0,0 l/m 0 min 0 min 0 W/m 29,0 km/h (5 Bft) 90,74 %
08.04.2022 01:50 6,6 C 5,6 C 2,8 C 85 % 997,1 hPa 0,0 l/m 0 min 0 min 0 W/m 22,5 km/h (4 Bft) 95,74 %
08.04.2022 01:52 6,6 C 5,6 C 2,8 C 85 % 997,0 hPa 0,0 l/m 0 min 0 min 0 W/m 22,5 km/h (4 Bft) 93,88 %
08.04.2022 01:54 6,6 C 5,6 C 2,8 C 85 % 997,1 hPa 0,0 l/m 0 min 0 min 0 W/m 22,5 km/h (4 Bft) 94,59 %
08.04.2022 01:56 6,6 C 5,6 C 2,8 C 85 % 997,1 hPa 0,0 l/m 0 min 0 min 0 W/m 25,7 km/h (4 Bft) 95,74 %
08.04.2022 01:58 6,6 C 5,6 C 2,8 C 85 % 997,2 hPa 0,0 l/m 0 min 0 min 0 W/m 19,3 km/h (3 Bft) 97,87 %
08.04.2022 02:00 6,5 C 5,6 C 2,8 C 85 % 997,4 hPa 0,0 l/m 0 min 0 min 0 W/m 25,7 km/h (4 Bft) 95,74 %
08.04.2022 02:02 6,5 C 5,6 C 2,8 C 85 % 997,2 hPa 0,0 l/m 0 min 0 min 0 W/m 22,5 km/h (4 Bft) 97,87 %
08.04.2022 02:04 6,5 C 5,6 C 2,8 C 86 % 997,2 hPa 0,0 l/m 0 min 0 min 0 W/m 19,3 km/h (3 Bft) 98,00 %
08.04.2022 02:06 6,5 C 5,6 C 2,8 C 86 % 997,3 hPa 0,0 l/m 0 min 0 min 0 W/m 16,1 km/h (3 Bft) 98,15 %
08.04.2022 02:08 6,5 C 5,6 C 2,8 C 86 % 997,4 hPa 0,0 l/m 0 min 0 min 0 W/m 22,5 km/h (4 Bft) 97,87 %
08.04.2022 02:10 6,4 C 5,6 C 2,8 C 86 % 997,4 hPa 0,0 l/m 0 min 0 min 0 W/m 22,5 km/h (4 Bft) 97,14 %
08.04.2022 02:12 6,4 C 5,6 C 2,8 C 86 % 997,5 hPa 0,0 l/m 0 min 0 min 0 W/m 19,3 km/h (3 Bft) 97,96 %
08.04.2022 02:14 6,3 C 5,6 C 2,8 C 86 % 997,5 hPa 0,0 l/m 0 min 0 min 0 W/m 25,7 km/h (4 Bft) 97,96 %
08.04.2022 02:16 6,3 C 5,6 C 2,8 C 86 % 997,5 hPa 0,0 l/m 0 min 0 min 0 W/m 19,3 km/h (3 Bft) 97,83 %
08.04.2022 02:18 6,3 C 5,6 C 2,8 C 86 % 997,4 hPa 0,0 l/m 0 min 0 min 0 W/m 35,4 km/h (5 Bft) 95,74 %
08.04.2022 02:20 6,3 C 5,6 C 2,8 C 86 % 997,5 hPa 0,0 l/m 0 min 0 min 0 W/m 19,3 km/h (3 Bft) 100,00 %
08.04.2022 02:22 6,2 C 5,6 C 2,8 C 87 % 997,5 hPa 0,0 l/m 0 min 0 min 0 W/m 19,3 km/h (3 Bft) 100,00 %
08.04.2022 02:24 6,2 C 5,6 C 2,2 C 87 % 997,6 hPa 0,0 l/m 0 min 0 min 0 W/m 19,3 km/h (3 Bft) 97,37 %
08.04.2022 02:26 6,2 C 5,6 C 2,2 C 87 % 997,7 hPa 0,0 l/m 0 min 0 min 0 W/m 19,3 km/h (3 Bft) 97,87 %
08.04.2022 02:28 6,1 C 5,6 C 2,2 C 87 % 997,6 hPa 0,0 l/m 0 min 0 min 0 W/m 19,3 km/h (3 Bft) 97,92 %
08.04.2022 02:30 6,1 C 5,6 C 2,2 C 87 % 997,8 hPa 0,0 l/m 0 min 0 min 0 W/m 25,7 km/h (4 Bft) 97,87 %
08.04.2022 02:32 6,1 C 5,6 C 2,2 C 87 % 997,8 hPa 0,0 l/m 0 min 0 min 0 W/m 19,3 km/h (3 Bft) 97,87 %
08.04.2022 02:34 6,1 C 5,6 C 2,2 C 87 % 997,8 hPa 0,0 l/m 0 min 0 min 0 W/m 22,5 km/h (4 Bft) 95,74 %
08.04.2022 02:36 6,1 C 5,6 C 2,2 C 87 % 997,9 hPa 0,0 l/m 0 min 0 min 0 W/m 16,1 km/h (3 Bft) 96,36 %
08.04.2022 02:38 6,1 C 5,6 C 2,2 C 88 % 997,9 hPa 0,0 l/m 0 min 0 min 0 W/m 32,2 km/h (5 Bft) 97,83 %
08.04.2022 02:40 6,0 C 5,0 C 2,2 C 88 % 997,9 hPa 0,0 l/m 0 min 0 min 0 W/m 22,5 km/h (4 Bft) 97,22 %
08.04.2022 02:42 6,0 C 5,0 C 2,2 C 88 % 997,9 hPa 0,0 l/m 0 min 0 min 0 W/m 22,5 km/h (4 Bft) 97,96 %
08.04.2022 02:44 5,9 C 5,0 C 2,2 C 88 % 998,0 hPa 0,0 l/m 0 min 0 min 0 W/m 25,7 km/h (4 Bft) 97,92 %
08.04.2022 02:46 5,9 C 5,0 C 2,2 C 88 % 998,0 hPa 0,0 l/m 0 min 0 min 0 W/m 16,1 km/h (3 Bft) 97,87 %
08.04.2022 02:48 5,9 C 5,0 C 2,2 C 88 % 998,1 hPa 0,0 l/m 0 min 0 min 0 W/m 25,7 km/h (4 Bft) 97,87 %
08.04.2022 02:50 5,9 C 5,0 C 2,2 C 88 % 998,0 hPa 0,0 l/m 0 min 0 min 0 W/m 16,1 km/h (3 Bft) 98,15 %
08.04.2022 02:52 5,9 C 5,0 C 2,2 C 88 % 998,1 hPa 0,0 l/m 0 min 0 min 0 W/m 32,2 km/h (5 Bft) 97,22 %
08.04.2022 02:54 5,8 C 5,0 C 2,2 C 89 % 998,1 hPa 0,0 l/m 0 min 0 min 0 W/m 16,1 km/h (3 Bft) 97,92 %
08.04.2022 02:56 5,8 C 5,0 C 2,2 C 89 % 998,1 hPa 0,0 l/m 0 min 0 min 0 W/m 19,3 km/h (3 Bft) 95,92 %
08.04.2022 02:58 5,8 C 5,0 C 2,2 C 89 % 998,1 hPa 0,0 l/m 0 min 0 min 0 W/m 22,5 km/h (4 Bft) 97,87 %
08.04.2022 03:00 5,8 C 5,0 C 2,2 C 89 % 998,1 hPa 0,0 l/m 0 min 0 min 0 W/m 19,3 km/h (3 Bft) 97,87 %
08.04.2022 03:02 5,8 C 5,0 C 2,2 C 89 % 998,2 hPa 0,0 l/m 0 min 0 min 0 W/m 16,1 km/h (3 Bft) 97,87 %
08.04.2022 03:04 5,8 C 5,0 C 2,2 C 89 % 998,3 hPa 0,0 l/m 0 min 0 min 0 W/m 19,3 km/h (3 Bft) 97,96 %
08.04.2022 03:06 5,8 C 5,0 C 2,2 C 89 % 998,3 hPa 0,0 l/m 0 min 0 min 0 W/m 16,1 km/h (3 Bft) 97,87 %
08.04.2022 03:08 5,7 C 5,0 C 2,2 C 89 % 998,4 hPa 0,0 l/m 0 min 0 min 0 W/m 19,3 km/h (3 Bft) 93,62 %
08.04.2022 03:10 5,7 C 5,0 C 2,2 C 89 % 998,4 hPa 0,0 l/m 0 min 0 min 0 W/m 22,5 km/h (4 Bft) 94,29 %
08.04.2022 03:12 5,7 C 5,0 C 2,2 C 89 % 998,5 hPa 0,0 l/m 0 min 0 min 0 W/m 16,1 km/h (3 Bft) 94,92 %
08.04.2022 03:14 5,7 C 5,0 C 2,2 C 89 % 998,5 hPa 0,0 l/m 0 min 0 min 0 W/m 16,1 km/h (3 Bft) 100,00 %
08.04.2022 03:16 5,7 C 5,0 C 2,2 C 89 % 998,5 hPa 0,0 l/m 0 min 0 min 0 W/m 19,3 km/h (3 Bft) 97,96 %
08.04.2022 03:18 5,7 C 5,0 C 2,2 C 89 % 998,5 hPa 0,0 l/m 0 min 0 min 0 W/m 22,5 km/h (4 Bft) 97,96 %
08.04.2022 03:20 5,7 C 5,0 C 2,2 C 89 % 998,5 hPa 0,0 l/m 0 min 0 min 0 W/m 12,9 km/h (3 Bft) 97,87 %
08.04.2022 03:22 5,7 C 5,0 C 2,2 C 89 % 998,6 hPa 0,0 l/m 0 min 0 min 0 W/m 19,3 km/h (3 Bft) 97,62 %
08.04.2022 03:24 5,6 C 5,0 C 2,2 C 89 % 998,5 hPa 0,0 l/m 0 min 0 min 0 W/m 22,5 km/h (4 Bft) 98,00 %
08.04.2022 03:26 5,6 C 5,0 C 2,2 C 89 % 998,7 hPa 0,0 l/m 0 min 0 min 0 W/m 22,5 km/h (4 Bft) 95,83 %
08.04.2022 03:28 5,6 C 5,0 C 2,2 C 89 % 998,6 hPa 0,0 l/m 0 min 0 min 0 W/m 12,9 km/h (3 Bft) 97,87 %
08.04.2022 03:30 5,6 C 5,0 C 2,2 C 89 % 998,6 hPa 0,0 l/m 0 min 0 min 0 W/m 16,1 km/h (3 Bft) 97,62 %
08.04.2022 03:32 5,5 C 5,0 C 2,2 C 90 % 998,6 hPa 0,0 l/m 0 min 0 min 0 W/m 19,3 km/h (3 Bft) 98,00 %
08.04.2022 03:34 5,5 C 5,0 C 2,2 C 90 % 998,8 hPa 0,0 l/m 0 min 0 min 0 W/m 16,1 km/h (3 Bft) 93,88 %
08.04.2022 03:36 5,4 C 4,4 C 2,2 C 90 % 998,7 hPa 0,0 l/m 0 min 0 min 0 W/m 19,3 km/h (3 Bft) 97,87 %
08.04.2022 03:38 5,4 C 4,4 C 1,7 C 90 % 998,8 hPa 0,0 l/m 0 min 0 min 0 W/m 16,1 km/h (3 Bft) 97,56 %
08.04.2022 03:40 5,4 C 4,4 C 1,7 C 90 % 998,8 hPa 0,0 l/m 0 min 0 min 0 W/m 19,3 km/h (3 Bft) 95,74 %
08.04.2022 03:42 5,4 C 4,4 C 1,7 C 90 % 998,8 hPa 0,0 l/m 0 min 0 min 0 W/m 16,1 km/h (3 Bft) 97,87 %
08.04.2022 03:44 5,4 C 4,4 C 1,7 C 90 % 999,0 hPa 0,0 l/m 0 min 0 min 0 W/m 12,9 km/h (3 Bft) 96,00 %
08.04.2022 03:46 5,3 C 4,4 C 1,7 C 90 % 999,0 hPa 0,0 l/m 0 min 0 min 0 W/m 16,1 km/h (3 Bft) 97,96 %
08.04.2022 03:48 5,3 C 4,4 C 2,2 C 90 % 999,1 hPa 0,0 l/m 0 min 0 min 0 W/m 22,5 km/h (4 Bft) 97,83 %
08.04.2022 03:50 5,3 C 5,0 C 2,2 C 90 % 999,1 hPa 0,0 l/m 0 min 0 min 0 W/m 9,7 km/h (2 Bft) 97,87 %
08.04.2022 03:52 5,4 C 5,0 C 2,2 C 90 % 999,1 hPa 0,0 l/m 0 min 0 min 0 W/m 12,9 km/h (3 Bft) 95,24 %
08.04.2022 03:54 5,4 C 5,0 C 2,2 C 90 % 999,1 hPa 0,0 l/m 0 min 0 min 0 W/m 19,3 km/h (3 Bft) 98,00 %
08.04.2022 03:56 5,4 C 5,0 C 2,2 C 90 % 999,1 hPa 0,0 l/m 0 min 0 min 0 W/m 19,3 km/h (3 Bft) 100,00 %
08.04.2022 03:58 5,4 C 5,0 C 2,2 C 90 % 999,0 hPa 0,0 l/m 0 min 0 min 0 W/m 19,3 km/h (3 Bft) 100,00 %
08.04.2022 04:00 5,4 C 5,0 C 2,2 C 90 % 999,1 hPa 0,0 l/m 0 min 0 min 0 W/m 16,1 km/h (3 Bft) 97,83 %
08.04.2022 04:02 5,4 C 5,0 C 2,2 C 90 % 999,1 hPa 0,0 l/m 0 min 0 min 0 W/m 12,9 km/h (3 Bft) 100,00 %
08.04.2022 04:04 5,4 C 4,4 C 2,2 C 90 % 999,2 hPa 0,0 l/m 0 min 0 min 0 W/m 16,1 km/h (3 Bft) 100,00 %
08.04.2022 04:06 5,4 C 4,4 C 2,2 C 90 % 999,1 hPa 0,0 l/m 0 min 0 min 0 W/m 19,3 km/h (3 Bft) 100,00 %
08.04.2022 04:08 5,4 C 4,4 C 2,2 C 90 % 999,2 hPa 0,0 l/m 0 min 0 min 0 W/m 16,1 km/h (3 Bft) 95,74 %
08.04.2022 04:10 5,4 C 4,4 C 2,2 C 90 % 999,2 hPa 0,0 l/m 0 min 0 min 0 W/m 12,9 km/h (3 Bft) 95,74 %
08.04.2022 04:15 5,4 C 5,0 C 2,2 C 90 % 999,3 hPa 0,0 l/m 0 min 0 min 0 W/m 22,5 km/h (4 Bft) 100,00 %
08.04.2022 04:16 5,4 C 5,0 C 2,2 C 90 % 999,3 hPa 0,0 l/m 0 min 0 min 0 W/m 12,9 km/h (3 Bft) 95,65 %
08.04.2022 04:18 5,4 C 5,0 C 2,2 C 90 % 999,4 hPa 0,0 l/m 0 min 0 min 0 W/m 12,9 km/h (3 Bft) 97,87 %
08.04.2022 04:20 5,4 C 5,0 C 2,2 C 90 % 999,4 hPa 0,0 l/m 0 min 0 min 0 W/m 12,9 km/h (3 Bft) 97,87 %
08.04.2022 04:22 5,4 C 5,0 C 2,2 C 90 % 999,4 hPa 0,0 l/m 0 min 0 min 0 W/m 19,3 km/h (3 Bft) 95,74 %
08.04.2022 04:24 5,4 C 5,0 C 2,2 C 90 % 999,4 hPa 0,0 l/m 0 min 0 min 0 W/m 6,4 km/h (2 Bft) 97,83 %
08.04.2022 04:26 5,4 C 5,0 C 2,2 C 90 % 999,5 hPa 0,0 l/m 0 min 0 min 0 W/m 16,1 km/h (3 Bft) 97,87 %
08.04.2022 04:28 5,4 C 5,0 C 2,2 C 90 % 999,5 hPa 0,0 l/m 0 min 0 min 0 W/m 12,9 km/h (3 Bft) 97,87 %
08.04.2022 04:30 5,4 C 4,4 C 2,2 C 90 % 999,4 hPa 0,0 l/m 0 min 0 min 0 W/m 16,1 km/h (3 Bft) 97,87 %
08.04.2022 04:32 5,4 C 4,4 C 2,2 C 90 % 999,5 hPa 0,0 l/m 0 min 0 min 0 W/m 19,3 km/h (3 Bft) 97,87 %
08.04.2022 04:34 5,3 C 4,4 C 2,2 C 90 % 999,4 hPa 0,0 l/m 0 min 0 min 0 W/m 19,3 km/h (3 Bft) 97,87 %
08.04.2022 04:36 5,3 C 4,4 C 2,2 C 90 % 999,5 hPa 0,0 l/m 0 min 0 min 0 W/m 16,1 km/h (3 Bft) 95,65 %
08.04.2022 04:38 5,3 C 4,4 C 2,2 C 90 % 999,5 hPa 0,0 l/m 0 min 0 min 0 W/m 19,3 km/h (3 Bft) 97,87 %
08.04.2022 04:40 5,3 C 4,4 C 1,7 C 90 % 999,5 hPa 0,0 l/m 0 min 0 min 0 W/m 16,1 km/h (3 Bft) 97,87 %
08.04.2022 04:42 5,3 C 4,4 C 1,7 C 90 % 999,5 hPa 0,0 l/m 0 min 0 min 0 W/m 16,1 km/h (3 Bft) 98,00 %
08.04.2022 04:44 5,3 C 4,4 C 1,7 C 90 % 999,6 hPa 0,0 l/m 0 min 0 min 0 W/m 12,9 km/h (3 Bft) 95,92 %
08.04.2022 04:46 5,2 C 4,4 C 1,7 C 90 % 999,6 hPa 0,0 l/m 0 min 0 min 0 W/m 12,9 km/h (3 Bft) 97,14 %
08.04.2022 04:48 5,2 C 4,4 C 1,7 C 90 % 999,6 hPa 0,0 l/m 0 min 0 min 0 W/m 12,9 km/h (3 Bft) 97,87 %
08.04.2022 04:50 5,2 C 4,4 C 1,7 C 90 % 999,6 hPa 0,0 l/m 0 min 0 min 0 W/m 6,4 km/h (2 Bft) 98,11 %
08.04.2022 04:52 5,2 C 4,4 C 1,7 C 90 % 999,6 hPa 0,0 l/m 0 min 0 min 0 W/m 9,7 km/h (2 Bft) 100,00 %
08.04.2022 04:54 5,2 C 4,4 C 1,7 C 90 % 999,6 hPa 0,0 l/m 0 min 0 min 0 W/m 22,5 km/h (4 Bft) 100,00 %
08.04.2022 04:56 5,2 C 4,4 C 1,7 C 90 % 999,7 hPa 0,0 l/m 0 min 0 min 0 W/m 16,1 km/h (3 Bft) 100,00 %
08.04.2022 04:58 5,2 C 4,4 C 1,7 C 90 % 999,7 hPa 0,0 l/m 0 min 0 min 0 W/m 12,9 km/h (3 Bft) 100,00 %
08.04.2022 05:00 5,2 C 4,4 C 1,7 C 90 % 999,7 hPa 0,0 l/m 0 min 0 min 0 W/m 12,9 km/h (3 Bft) 98,11 %
08.04.2022 05:02 5,2 C 4,4 C 1,7 C 90 % 999,7 hPa 0,0 l/m 0 min 0 min 0 W/m 12,9 km/h (3 Bft) 97,87 %
08.04.2022 05:04 5,2 C 4,4 C 1,7 C 90 % 999,8 hPa 0,0 l/m 0 min 0 min 0 W/m 9,7 km/h (2 Bft) 100,00 %
08.04.2022 05:06 5,2 C 4,4 C 1,7 C 90 % 999,8 hPa 0,0 l/m 0 min 0 min 0 W/m 6,4 km/h (2 Bft) 100,00 %
08.04.2022 05:08 5,1 C 4,4 C 1,7 C 90 % 999,8 hPa 0,0 l/m 0 min 0 min 0 W/m 6,4 km/h (2 Bft) 97,87 %
08.04.2022 05:10 5,1 C 4,4 C 1,7 C 90 % 999,8 hPa 0,0 l/m 0 min 0 min 0 W/m 19,3 km/h (3 Bft) 100,00 %
08.04.2022 05:12 5,1 C 4,4 C 1,7 C 90 % 999,7 hPa 0,0 l/m 0 min 0 min 0 W/m 16,1 km/h (3 Bft) 97,96 %
08.04.2022 05:14 5,1 C 4,4 C 1,7 C 90 % 999,8 hPa 0,0 l/m 0 min 0 min 0 W/m 16,1 km/h (3 Bft) 97,14 %
08.04.2022 05:16 5,1 C 4,4 C 1,7 C 90 % 999,7 hPa 0,0 l/m 0 min 0 min 0 W/m 6,4 km/h (2 Bft) 98,15 %
08.04.2022 05:18 5,1 C 4,4 C 1,7 C 90 % 999,7 hPa 0,0 l/m 0 min 0 min 0 W/m 9,7 km/h (2 Bft) 97,87 %
08.04.2022 05:20 5,0 C 4,4 C 1,7 C 90 % 999,7 hPa 0,0 l/m 0 min 0 min 0 W/m 6,4 km/h (2 Bft) 98,00 %
08.04.2022 05:22 5,0 C 4,4 C 1,7 C 90 % 999,7 hPa 0,0 l/m 0 min 0 min 0 W/m 12,9 km/h (3 Bft) 95,83 %
08.04.2022 05:24 5,0 C 4,4 C 1,7 C 90 % 999,7 hPa 0,0 l/m 0 min 0 min 0 W/m 12,9 km/h (3 Bft) 97,87 %
08.04.2022 05:26 5,0 C 3,9 C 1,7 C 90 % 999,7 hPa 0,0 l/m 0 min 0 min 0 W/m 12,9 km/h (3 Bft) 100,00 %
08.04.2022 05:28 5,0 C 4,4 C 1,7 C 90 % 999,7 hPa 0,0 l/m 0 min 0 min 0 W/m 12,9 km/h (3 Bft) 96,30 %
08.04.2022 05:30 5,0 C 4,4 C 1,7 C 90 % 999,7 hPa 0,0 l/m 0 min 0 min 0 W/m 6,4 km/h (2 Bft) 95,74 %
08.04.2022 05:32 5,0 C 4,4 C 1,7 C 91 % 999,7 hPa 0,0 l/m 0 min 0 min 0 W/m 16,1 km/h (3 Bft) 95,92 %
08.04.2022 05:34 5,0 C 4,4 C 1,7 C 91 % 999,7 hPa 0,0 l/m 0 min 0 min 0 W/m 9,7 km/h (2 Bft) 95,74 %
08.04.2022 05:36 5,0 C 4,4 C 1,7 C 91 % 999,8 hPa 0,0 l/m 0 min 0 min 0 W/m 16,1 km/h (3 Bft) 95,74 %
08.04.2022 05:38 5,0 C 4,4 C 1,7 C 91 % 999,8 hPa 0,0 l/m 0 min 0 min 0 W/m 12,9 km/h (3 Bft) 95,74 %
08.04.2022 05:40 5,0 C 4,4 C 1,7 C 91 % 999,8 hPa 0,0 l/m 0 min 0 min 0 W/m 12,9 km/h (3 Bft) 95,74 %
08.04.2022 05:42 4,9 C 4,4 C 1,7 C 91 % 999,9 hPa 0,0 l/m 0 min 0 min 0 W/m 9,7 km/h (2 Bft) 95,74 %
08.04.2022 05:44 5,0 C 4,4 C 1,7 C 91 % 999,8 hPa 0,0 l/m 0 min 0 min 0 W/m 16,1 km/h (3 Bft) 97,83 %
08.04.2022 05:46 4,9 C 4,4 C 1,7 C 91 % 999,9 hPa 0,0 l/m 0 min 0 min 0 W/m 6,4 km/h (2 Bft) 97,87 %
08.04.2022 05:48 4,9 C 4,4 C 1,7 C 91 % 1000,0 hPa 0,0 l/m 0 min 0 min 0 W/m 12,9 km/h (3 Bft) 93,62 %
08.04.2022 05:50 4,9 C 4,4 C 1,7 C 91 % 1000,0 hPa 0,0 l/m 0 min 0 min 0 W/m 9,7 km/h (2 Bft) 97,87 %
08.04.2022 05:52 4,9 C 4,4 C 1,7 C 91 % 1000,0 hPa 0,0 l/m 0 min 0 min 0 W/m 6,4 km/h (2 Bft) 97,87 %
08.04.2022 05:54 4,9 C 3,9 C 1,7 C 91 % 1000,0 hPa 0,0 l/m 0 min 0 min 0 W/m 12,9 km/h (3 Bft) 97,87 %
08.04.2022 05:56 4,9 C 3,9 C 1,7 C 91 % 1000,0 hPa 0,0 l/m 0 min 0 min 0 W/m 12,9 km/h (3 Bft) 97,83 %
08.04.2022 05:58 4,9 C 3,9 C 1,7 C 91 % 1000,1 hPa 0,0 l/m 0 min 0 min 0 W/m 9,7 km/h (2 Bft) 97,87 %
08.04.2022 06:00 4,9 C 3,9 C 1,7 C 91 % 1000,1 hPa 0,0 l/m 0 min 0 min 0 W/m 9,7 km/h (2 Bft) 97,87 %
08.04.2022 06:02 4,8 C 3,9 C 1,7 C 91 % 1000,1 hPa 0,0 l/m 0 min 0 min 0 W/m 6,4 km/h (2 Bft) 97,87 %
08.04.2022 06:04 4,8 C 3,9 C 1,7 C 91 % 1000,1 hPa 0,0 l/m 0 min 0 min 0 W/m 6,4 km/h (2 Bft) 93,62 %
08.04.2022 06:08 4,8 C 3,9 C 1,7 C 91 % 1000,1 hPa 0,0 l/m 0 min 0 min 0 W/m 12,9 km/h (3 Bft) 97,85 %
08.04.2022 06:10 4,8 C 3,9 C 1,7 C 91 % 1000,1 hPa 0,0 l/m 0 min 0 min 0 W/m 6,4 km/h (2 Bft) 97,87 %
08.04.2022 06:12 4,8 C 3,9 C 1,7 C 91 % 1000,2 hPa 0,0 l/m 0 min 0 min 0 W/m 12,9 km/h (3 Bft) 97,87 %
08.04.2022 06:14 4,8 C 3,9 C 1,7 C 91 % 1000,2 hPa 0,0 l/m 0 min 0 min 0 W/m 12,9 km/h (3 Bft) 97,87 %
08.04.2022 06:16 4,8 C 3,9 C 1,7 C 91 % 1000,2 hPa 0,0 l/m 0 min 0 min 0 W/m 19,3 km/h (3 Bft) 97,87 %
08.04.2022 06:18 4,8 C 3,9 C 1,7 C 91 % 1000,2 hPa 0,0 l/m 0 min 0 min 0 W/m 12,9 km/h (3 Bft) 95,74 %
08.04.2022 06:20 4,8 C 3,9 C 1,7 C 91 % 1000,2 hPa 0,0 l/m 0 min 0 min 0 W/m 16,1 km/h (3 Bft) 97,83 %
08.04.2022 06:22 4,8 C 3,9 C 1,7 C 91 % 1000,2 hPa 0,0 l/m 0 min 0 min 0 W/m 12,9 km/h (3 Bft) 93,62 %
08.04.2022 06:24 4,8 C 3,9 C 1,7 C 91 % 1000,3 hPa 0,0 l/m 0 min 0 min 0 W/m 12,9 km/h (3 Bft) 97,87 %
08.04.2022 06:26 4,8 C 3,9 C 1,7 C 91 % 1000,3 hPa 0,0 l/m 0 min 0 min 0 W/m 12,9 km/h (3 Bft) 100,00 %
08.04.2022 06:28 4,8 C 3,9 C 1,7 C 91 % 1000,2 hPa 0,0 l/m 0 min 0 min 0 W/m 12,9 km/h (3 Bft) 97,87 %
08.04.2022 06:30 4,8 C 3,9 C 1,7 C 91 % 1000,2 hPa 0,0 l/m 0 min 0 min 0 W/m 6,4 km/h (2 Bft) 100,00 %
08.04.2022 06:32 4,8 C 3,9 C 1,7 C 91 % 1000,1 hPa 0,0 l/m 0 min 0 min 0 W/m 19,3 km/h (3 Bft) 100,00 %
08.04.2022 06:34 4,7 C 3,9 C 1,7 C 91 % 1000,0 hPa 0,0 l/m 0 min 0 min 0 W/m 6,4 km/h (2 Bft) 95,74 %
08.04.2022 06:36 4,7 C 3,9 C 1,7 C 91 % 1000,0 hPa 0,0 l/m 0 min 0 min 0 W/m 6,4 km/h (2 Bft) 95,74 %
08.04.2022 06:38 4,7 C 3,9 C 1,7 C 91 % 1000,0 hPa 0,0 l/m 0 min 0 min 0 W/m 12,9 km/h (3 Bft) 95,74 %
08.04.2022 06:40 4,7 C 3,9 C 1,7 C 91 % 1000,0 hPa 0,0 l/m 0 min 0 min 0 W/m 9,7 km/h (2 Bft) 97,87 %
08.04.2022 06:42 4,7 C 3,9 C 1,7 C 91 % 1000,1 hPa 0,0 l/m 0 min 0 min 0 W/m 12,9 km/h (3 Bft) 95,74 %
08.04.2022 06:44 4,7 C 3,9 C 1,1 C 91 % 1000,1 hPa 0,0 l/m 0 min 0 min 0 W/m 12,9 km/h (3 Bft) 97,83 %
08.04.2022 06:46 4,7 C 3,9 C 1,1 C 91 % 1000,1 hPa 0,0 l/m 0 min 0 min 0 W/m 12,9 km/h (3 Bft) 97,87 %
08.04.2022 06:48 4,7 C 3,9 C 1,1 C 91 % 1000,1 hPa 0,0 l/m 0 min 0 min 0 W/m 12,9 km/h (3 Bft) 95,74 %
08.04.2022 06:50 4,6 C 3,9 C 1,1 C 91 % 1000,1 hPa 0,0 l/m 0 min 0 min 0 W/m 6,4 km/h (2 Bft) 97,87 %
08.04.2022 06:52 4,6 C 3,9 C 1,1 C 91 % 1000,1 hPa 0,0 l/m 0 min 0 min 0 W/m 12,9 km/h (3 Bft) 97,87 %
08.04.2022 06:54 4,6 C 3,9 C 1,1 C 91 % 1000,1 hPa 0,0 l/m 0 min 0 min 0 W/m 12,9 km/h (3 Bft) 93,62 %
08.04.2022 06:56 4,6 C 3,9 C 1,1 C 91 % 1000,1 hPa 0,0 l/m 0 min 0 min 0 W/m 6,4 km/h (2 Bft) 97,83 %
08.04.2022 06:58 4,6 C 3,9 C 1,1 C 91 % 1000,2 hPa 0,0 l/m 0 min 0 min 2 W/m 6,4 km/h (2 Bft) 97,87 %
08.04.2022 07:00 4,6 C 3,9 C 1,1 C 92 % 1000,2 hPa 0,0 l/m 0 min 0 min 5 W/m 6,4 km/h (2 Bft) 95,74 %
08.04.2022 07:02 4,6 C 3,9 C 1,1 C 91 % 1000,2 hPa 0,0 l/m 0 min 0 min 5 W/m 6,4 km/h (2 Bft) 93,62 %
08.04.2022 07:04 4,6 C 3,9 C 1,1 C 91 % 1000,2 hPa 0,0 l/m 0 min 0 min 7 W/m 3,2 km/h (1 Bft) 95,74 %
08.04.2022 07:06 4,5 C 3,9 C 1,1 C 91 % 1000,2 hPa 0,0 l/m 0 min 0 min 8 W/m 3,2 km/h (1 Bft) 95,65 %
08.04.2022 07:08 4,5 C 3,9 C 1,1 C 91 % 1000,2 hPa 0,0 l/m 0 min 0 min 10 W/m 3,2 km/h (1 Bft) 95,92 %
08.04.2022 07:10 4,5 C 3,9 C 1,1 C 91 % 1000,3 hPa 0,0 l/m 0 min 0 min 11 W/m 6,4 km/h (2 Bft) 95,74 %
08.04.2022 07:12 4,5 C 3,9 C 1,1 C 91 % 1000,3 hPa 0,0 l/m 0 min 0 min 11 W/m 3,2 km/h (1 Bft) 95,74 %
08.04.2022 07:14 4,4 C 3,3 C 1,1 C 91 % 1000,3 hPa 0,0 l/m 0 min 0 min 12 W/m 6,4 km/h (2 Bft) 95,74 %
08.04.2022 07:16 4,4 C 3,3 C 1,1 C 91 % 1000,3 hPa 0,0 l/m 0 min 0 min 13 W/m 6,4 km/h (2 Bft) 95,74 %
08.04.2022 07:18 4,4 C 3,3 C 1,1 C 91 % 1000,3 hPa 0,0 l/m 0 min 0 min 15 W/m 3,2 km/h (1 Bft) 97,83 %
08.04.2022 07:20 4,4 C 3,3 C 1,1 C 92 % 1000,2 hPa 0,0 l/m 0 min 0 min 20 W/m 6,4 km/h (2 Bft) 97,87 %
08.04.2022 07:22 4,4 C 3,3 C 1,1 C 92 % 1000,2 hPa 0,0 l/m 0 min 0 min 26 W/m 3,2 km/h (1 Bft) 97,87 %
08.04.2022 07:24 4,4 C 3,9 C 1,1 C 92 % 1000,3 hPa 0,0 l/m 0 min 0 min 26 W/m 6,4 km/h (2 Bft) 97,87 %
08.04.2022 07:26 4,4 C 3,9 C 1,1 C 92 % 1000,3 hPa 0,0 l/m 0 min 0 min 24 W/m 9,7 km/h (2 Bft) 97,87 %
08.04.2022 07:28 4,4 C 3,9 C 1,1 C 92 % 1000,3 hPa 0,0 l/m 0 min 0 min 22 W/m 9,7 km/h (2 Bft) 97,83 %
08.04.2022 07:30 4,4 C 3,9 C 1,7 C 92 % 1000,3 hPa 0,0 l/m 0 min 0 min 21 W/m 3,2 km/h (1 Bft) 97,87 %
08.04.2022 07:32 4,4 C 3,9 C 1,7 C 92 % 1000,3 hPa 0,0 l/m 0 min 0 min 26 W/m 6,4 km/h (2 Bft) 100,00 %
08.04.2022 07:34 4,5 C 3,9 C 1,7 C 92 % 1000,3 hPa 0,0 l/m 0 min 0 min 31 W/m 3,2 km/h (1 Bft) 100,00 %
08.04.2022 07:36 4,5 C 4,4 C 1,7 C 92 % 1000,3 hPa 0,0 l/m 0 min 0 min 34 W/m 3,2 km/h (1 Bft) 100,00 %
08.04.2022 07:38 4,6 C 4,4 C 1,7 C 92 % 1000,4 hPa 0,0 l/m 0 min 0 min 32 W/m 9,7 km/h (2 Bft) 100,00 %
08.04.2022 07:40 4,6 C 4,4 C 1,7 C 92 % 1000,4 hPa 0,0 l/m 0 min 0 min 33 W/m 6,4 km/h (2 Bft) 100,00 %
08.04.2022 07:42 4,6 C 4,4 C 1,7 C 93 % 1000,4 hPa 0,0 l/m 0 min 0 min 36 W/m 3,2 km/h (1 Bft) 97,87 %
08.04.2022 07:44 4,7 C 4,4 C 1,7 C 93 % 1000,4 hPa 0,0 l/m 0 min 0 min 33 W/m 9,7 km/h (2 Bft) 97,87 %
08.04.2022 07:46 4,7 C 4,4 C 1,7 C 93 % 1000,3 hPa 0,0 l/m 0 min 0 min 34 W/m 12,9 km/h (3 Bft) 100,00 %
08.04.2022 07:48 4,8 C 4,4 C 2,2 C 93 % 1000,3 hPa 0,0 l/m 0 min 0 min 35 W/m 16,1 km/h (3 Bft) 100,00 %
08.04.2022 07:50 4,8 C 4,4 C 2,2 C 93 % 1000,3 hPa 0,0 l/m 0 min 0 min 37 W/m 6,4 km/h (2 Bft) 100,00 %
08.04.2022 07:52 4,8 C 4,4 C 2,2 C 93 % 1000,3 hPa 0,0 l/m 0 min 0 min 41 W/m 16,1 km/h (3 Bft) 100,00 %
08.04.2022 07:54 4,9 C 4,4 C 2,2 C 93 % 1000,3 hPa 0,0 l/m 0 min 0 min 41 W/m 12,9 km/h (3 Bft) 100,00 %
08.04.2022 07:56 4,9 C 4,4 C 2,2 C 93 % 1000,3 hPa 0,0 l/m 0 min 0 min 47 W/m 6,4 km/h (2 Bft) 100,00 %
08.04.2022 07:58 4,9 C 5,0 C 2,2 C 93 % 1000,3 hPa 0,0 l/m 0 min 0 min 49 W/m 12,9 km/h (3 Bft) 100,00 %
08.04.2022 08:00 4,9 C 5,0 C 2,2 C 93 % 1000,3 hPa 0,0 l/m 0 min 0 min 54 W/m 6,4 km/h (2 Bft) 100,00 %
08.04.2022 08:02 5,0 C 5,0 C 2,2 C 92 % 1000,3 hPa 0,0 l/m 0 min 0 min 56 W/m 6,4 km/h (2 Bft) 97,87 %
08.04.2022 08:04 5,0 C 5,0 C 2,2 C 92 % 1000,2 hPa 0,0 l/m 0 min 0 min 52 W/m 16,1 km/h (3 Bft) 100,00 %
08.04.2022 08:06 5,1 C 5,0 C 2,2 C 92 % 1000,2 hPa 0,0 l/m 0 min 0 min 62 W/m 16,1 km/h (3 Bft) 97,87 %
08.04.2022 08:08 5,1 C 5,0 C 2,2 C 92 % 1000,3 hPa 0,0 l/m 0 min 0 min 66 W/m 12,9 km/h (3 Bft) 97,87 %
08.04.2022 08:10 5,1 C 5,0 C 2,2 C 92 % 1000,2 hPa 0,0 l/m 0 min 0 min 63 W/m 9,7 km/h (2 Bft) 100,00 %
08.04.2022 08:12 5,1 C 5,0 C 2,2 C 92 % 1000,3 hPa 0,0 l/m 0 min 0 min 68 W/m 12,9 km/h (3 Bft) 100,00 %
08.04.2022 08:14 5,1 C 5,0 C 2,2 C 92 % 1000,2 hPa 0,0 l/m 0 min 0 min 78 W/m 16,1 km/h (3 Bft) 100,00 %
08.04.2022 08:16 5,1 C 5,0 C 2,2 C 92 % 1000,2 hPa 0,0 l/m 0 min 0 min 82 W/m 16,1 km/h (3 Bft) 97,83 %
08.04.2022 08:18 5,1 C 5,0 C 2,2 C 92 % 1000,2 hPa 0,0 l/m 0 min 0 min 63 W/m 16,1 km/h (3 Bft) 100,00 %
08.04.2022 08:20 5,1 C 5,0 C 2,2 C 92 % 1000,2 hPa 0,0 l/m 0 min 0 min 54 W/m 19,3 km/h (3 Bft) 100,00 %
08.04.2022 08:22 5,1 C 5,0 C 2,2 C 92 % 1000,2 hPa 0,0 l/m 0 min 0 min 53 W/m 12,9 km/h (3 Bft) 100,00 %
08.04.2022 08:24 5,1 C 5,0 C 2,2 C 92 % 1000,2 hPa 0,0 l/m 0 min 0 min 56 W/m 12,9 km/h (3 Bft) 100,00 %
08.04.2022 08:26 5,1 C 5,0 C 2,2 C 92 % 1000,2 hPa 0,0 l/m 0 min 0 min 60 W/m 12,9 km/h (3 Bft) 97,87 %
08.04.2022 08:28 5,1 C 5,0 C 2,2 C 92 % 1000,2 hPa 0,0 l/m 0 min 0 min 71 W/m 6,4 km/h (2 Bft) 100,00 %
08.04.2022 08:30 5,2 C 5,0 C 2,2 C 91 % 1000,2 hPa 0,0 l/m 0 min 0 min 79 W/m 6,4 km/h (2 Bft) 100,00 %
08.04.2022 08:32 5,2 C 5,0 C 2,2 C 91 % 1000,2 hPa 0,0 l/m 0 min 0 min 90 W/m 3,2 km/h (1 Bft) 100,00 %
08.04.2022 08:34 5,2 C 5,0 C 2,2 C 91 % 1000,2 hPa 0,0 l/m 0 min 0 min 93 W/m 19,3 km/h (3 Bft) 100,00 %
08.04.2022 08:36 5,2 C 5,0 C 2,2 C 91 % 1000,2 hPa 0,0 l/m 0 min 0 min 82 W/m 9,7 km/h (2 Bft) 100,00 %
08.04.2022 08:38 5,3 C 5,6 C 2,2 C 91 % 1000,2 hPa 0,0 l/m 0 min 0 min 78 W/m 6,4 km/h (2 Bft) 100,00 %
08.04.2022 08:40 5,3 C 5,6 C 2,2 C 91 % 1000,2 hPa 0,0 l/m 0 min 0 min 77 W/m 16,1 km/h (3 Bft) 95,65 %
08.04.2022 08:42 5,3 C 5,6 C 2,2 C 91 % 1000,2 hPa 0,0 l/m 0 min 0 min 77 W/m 19,3 km/h (3 Bft) 97,87 %
08.04.2022 08:44 5,3 C 5,6 C 2,8 C 91 % 1000,2 hPa 0,0 l/m 0 min 0 min 78 W/m 9,7 km/h (2 Bft) 97,87 %
08.04.2022 08:46 5,4 C 5,6 C 2,8 C 91 % 1000,2 hPa 0,0 l/m 0 min 0 min 77 W/m 6,4 km/h (2 Bft) 95,74 %
08.04.2022 08:48 5,4 C 5,6 C 2,8 C 91 % 1000,2 hPa 0,0 l/m 0 min 0 min 88 W/m 9,7 km/h (2 Bft) 95,74 %
08.04.2022 08:50 5,4 C 5,6 C 2,8 C 91 % 1000,2 hPa 0,0 l/m 0 min 0 min 107 W/m 16,1 km/h (3 Bft) 97,83 %
08.04.2022 08:52 5,4 C 5,6 C 2,8 C 91 % 1000,2 hPa 0,0 l/m 0 min 0 min 117 W/m 19,3 km/h (3 Bft) 97,87 %
08.04.2022 08:54 5,5 C 5,6 C 2,8 C 91 % 1000,3 hPa 0,0 l/m 0 min 0 min 120 W/m 16,1 km/h (3 Bft) 95,74 %
08.04.2022 08:56 5,6 C 5,6 C 2,8 C 91 % 1000,2 hPa 0,0 l/m 0 min 0 min 115 W/m 9,7 km/h (2 Bft) 93,62 %
08.04.2022 08:58 5,6 C 5,6 C 2,8 C 91 % 1000,2 hPa 0,0 l/m 0 min 0 min 127 W/m 22,5 km/h (4 Bft) 93,62 %
08.04.2022 09:00 5,6 C 6,1 C 2,8 C 90 % 1000,2 hPa 0,0 l/m 0 min 0 min 151 W/m 16,1 km/h (3 Bft) 95,74 %
08.04.2022 09:02 5,6 C 6,1 C 2,8 C 90 % 1000,2 hPa 0,0 l/m 2 min 0 min 214 W/m 16,1 km/h (3 Bft) 95,65 %
08.04.2022 09:04 5,7 C 6,1 C 3,3 C 90 % 1000,1 hPa 0,0 l/m 2 min 0 min 270 W/m 3,2 km/h (1 Bft) 91,49 %
08.04.2022 09:06 5,7 C 6,7 C 3,3 C 90 % 1000,0 hPa 0,0 l/m 2 min 0 min 224 W/m 6,4 km/h (2 Bft) 91,49 %
08.04.2022 09:08 5,8 C 6,1 C 3,3 C 90 % 1000,0 hPa 0,0 l/m 2 min 0 min 206 W/m 19,3 km/h (3 Bft) 93,62 %
08.04.2022 09:10 5,8 C 6,7 C 3,3 C 90 % 999,9 hPa 0,0 l/m 2 min 0 min 199 W/m 6,4 km/h (2 Bft) 93,62 %
08.04.2022 09:12 5,9 C 6,7 C 3,3 C 90 % 999,9 hPa 0,0 l/m 2 min 0 min 195 W/m 9,7 km/h (2 Bft) 91,49 %
08.04.2022 09:14 5,9 C 6,7 C 3,3 C 90 % 999,9 hPa 0,0 l/m 2 min 0 min 190 W/m 9,7 km/h (2 Bft) 91,30 %
08.04.2022 09:16 6,0 C 6,7 C 3,3 C 89 % 1000,0 hPa 0,0 l/m 2 min 0 min 181 W/m 12,9 km/h (3 Bft) 93,62 %
08.04.2022 09:18 6,1 C 6,7 C 3,3 C 89 % 1000,0 hPa 0,0 l/m 2 min 0 min 183 W/m 6,4 km/h (2 Bft) 93,62 %
08.04.2022 09:20 6,1 C 6,7 C 3,3 C 89 % 1000,0 hPa 0,0 l/m 0 min 0 min 177 W/m 16,1 km/h (3 Bft) 95,74 %
08.04.2022 09:22 6,1 C 6,7 C 3,3 C 89 % 1000,0 hPa 0,0 l/m 0 min 0 min 180 W/m 16,1 km/h (3 Bft) 93,62 %
08.04.2022 09:24 6,1 C 6,7 C 3,3 C 89 % 1000,0 hPa 0,0 l/m 0 min 0 min 177 W/m 9,7 km/h (2 Bft) 93,62 %
08.04.2022 09:26 6,2 C 6,7 C 3,3 C 89 % 1000,0 hPa 0,0 l/m 0 min 0 min 178 W/m 9,7 km/h (2 Bft) 93,48 %
08.04.2022 09:28 6,2 C 6,7 C 3,3 C 88 % 1000,0 hPa 0,0 l/m 0 min 0 min 179 W/m 6,4 km/h (2 Bft) 95,74 %
08.04.2022 09:30 6,2 C 6,7 C 3,3 C 88 % 1000,0 hPa 0,0 l/m 0 min 0 min 179 W/m 12,9 km/h (3 Bft) 95,74 %
08.04.2022 09:32 6,2 C 6,7 C 3,9 C 88 % 1000,1 hPa 0,0 l/m 0 min 0 min 179 W/m 6,4 km/h (2 Bft) 95,74 %
08.04.2022 09:34 6,3 C 6,7 C 3,9 C 88 % 1000,1 hPa 0,0 l/m 0 min 0 min 183 W/m 6,4 km/h (2 Bft) 95,74 %
08.04.2022 09:36 6,3 C 6,7 C 3,9 C 87 % 1000,1 hPa 0,0 l/m 0 min 0 min 186 W/m 16,1 km/h (3 Bft) 97,87 %
08.04.2022 09:38 6,3 C 6,7 C 3,9 C 87 % 1000,1 hPa 0,0 l/m 0 min 0 min 184 W/m 16,1 km/h (3 Bft) 97,83 %
08.04.2022 09:40 6,3 C 6,7 C 3,9 C 87 % 1000,1 hPa 0,0 l/m 0 min 0 min 182 W/m 6,4 km/h (2 Bft) 97,87 %
08.04.2022 09:42 6,3 C 6,7 C 3,9 C 87 % 1000,1 hPa 0,0 l/m 0 min 0 min 186 W/m 12,9 km/h (3 Bft) 97,87 %
08.04.2022 09:44 6,4 C 6,7 C 3,9 C 87 % 1000,1 hPa 0,0 l/m 0 min 0 min 185 W/m 16,1 km/h (3 Bft) 97,87 %
08.04.2022 09:46 6,4 C 6,7 C 3,9 C 86 % 1000,1 hPa 0,0 l/m 0 min 0 min 184 W/m 16,1 km/h (3 Bft) 97,87 %
08.04.2022 09:48 6,4 C 6,7 C 3,9 C 86 % 1000,1 hPa 0,0 l/m 0 min 0 min 182 W/m 9,7 km/h (2 Bft) 95,74 %
08.04.2022 09:50 6,4 C 6,7 C 3,9 C 86 % 1000,1 hPa 0,0 l/m 0 min 0 min 181 W/m 12,9 km/h (3 Bft) 95,65 %
08.04.2022 09:52 6,5 C 6,7 C 3,9 C 86 % 1000,1 hPa 0,0 l/m 0 min 0 min 175 W/m 12,9 km/h (3 Bft) 97,87 %
08.04.2022 09:54 6,5 C 6,7 C 3,9 C 85 % 1000,1 hPa 0,0 l/m 0 min 0 min 169 W/m 12,9 km/h (3 Bft) 97,87 %
08.04.2022 09:56 6,5 C 6,7 C 3,9 C 85 % 1000,1 hPa 0,0 l/m 0 min 0 min 173 W/m 12,9 km/h (3 Bft) 97,87 %
08.04.2022 09:58 6,5 C 6,7 C 3,9 C 85 % 1000,0 hPa 0,0 l/m 0 min 0 min 179 W/m 6,4 km/h (2 Bft) 97,87 %
08.04.2022 10:00 6,5 C 6,7 C 3,9 C 84 % 1000,0 hPa 0,0 l/m 0 min 0 min 183 W/m 16,1 km/h (3 Bft) 97,87 %
08.04.2022 10:02 6,5 C 6,7 C 3,9 C 84 % 1000,0 hPa 0,0 l/m 0 min 0 min 185 W/m 6,4 km/h (2 Bft) 95,65 %
08.04.2022 10:04 6,5 C 6,7 C 3,9 C 84 % 1000,0 hPa 0,0 l/m 0 min 0 min 180 W/m 6,4 km/h (2 Bft) 97,87 %
08.04.2022 10:06 6,6 C 6,7 C 3,9 C 85 % 999,9 hPa 0,0 l/m 0 min 0 min 178 W/m 9,7 km/h (2 Bft) 100,00 %
08.04.2022 10:08 6,6 C 6,7 C 3,9 C 84 % 999,9 hPa 0,0 l/m 0 min 0 min 179 W/m 6,4 km/h (2 Bft) 97,87 %
08.04.2022 10:10 6,6 C 7,2 C 3,9 C 84 % 1000,0 hPa 0,0 l/m 0 min 0 min 179 W/m 6,4 km/h (2 Bft) 100,00 %
08.04.2022 10:12 6,7 C 7,2 C 3,9 C 84 % 1000,0 hPa 0,0 l/m 0 min 0 min 179 W/m 12,9 km/h (3 Bft) 100,00 %
08.04.2022 10:14 6,7 C 7,2 C 3,9 C 85 % 1000,0 hPa 0,0 l/m 0 min 0 min 177 W/m 6,4 km/h (2 Bft) 100,00 %
08.04.2022 10:16 6,7 C 7,2 C 3,9 C 85 % 1000,0 hPa 0,0 l/m 0 min 0 min 180 W/m 6,4 km/h (2 Bft) 100,00 %
08.04.2022 10:18 6,8 C 7,2 C 3,9 C 85 % 999,9 hPa 0,0 l/m 0 min 0 min 185 W/m 9,7 km/h (2 Bft) 100,00 %
08.04.2022 10:20 6,8 C 7,2 C 3,9 C 85 % 999,9 hPa 0,0 l/m 0 min 0 min 184 W/m 9,7 km/h (2 Bft) 100,00 %
08.04.2022 10:22 6,8 C 7,2 C 3,9 C 85 % 999,9 hPa 0,0 l/m 0 min 0 min 182 W/m 3,2 km/h (1 Bft) 100,00 %
08.04.2022 10:24 6,8 C 7,2 C 3,9 C 84 % 999,9 hPa 0,0 l/m 0 min 0 min 180 W/m 9,7 km/h (2 Bft) 100,00 %
08.04.2022 10:26 6,8 C 7,2 C 3,9 C 84 % 999,9 hPa 0,0 l/m 0 min 0 min 186 W/m 6,4 km/h (2 Bft) 100,00 %
08.04.2022 10:28 6,9 C 7,2 C 4,4 C 84 % 999,9 hPa 0,0 l/m 0 min 0 min 188 W/m 3,2 km/h (1 Bft) 100,00 %
08.04.2022 10:30 6,9 C 7,2 C 4,4 C 84 % 999,8 hPa 0,0 l/m 0 min 0 min 192 W/m 9,7 km/h (2 Bft) 100,00 %
08.04.2022 10:32 6,9 C 7,2 C 4,4 C 84 % 999,9 hPa 0,0 l/m 0 min 0 min 197 W/m 6,4 km/h (2 Bft) 100,00 %
08.04.2022 10:34 6,9 C 7,2 C 4,4 C 83 % 999,8 hPa 0,0 l/m 0 min 0 min 201 W/m 6,4 km/h (2 Bft) 100,00 %
08.04.2022 10:36 6,9 C 7,2 C 4,4 C 83 % 999,8 hPa 0,0 l/m 0 min 0 min 204 W/m 9,7 km/h (2 Bft) 100,00 %
08.04.2022 10:38 7,0 C 7,2 C 4,4 C 83 % 999,8 hPa 0,0 l/m 0 min 0 min 204 W/m 6,4 km/h (2 Bft) 100,00 %
08.04.2022 10:40 7,0 C 7,2 C 4,4 C 83 % 999,8 hPa 0,0 l/m 0 min 0 min 200 W/m 6,4 km/h (2 Bft) 100,00 %
08.04.2022 10:42 7,0 C 7,2 C 4,4 C 83 % 999,8 hPa 0,0 l/m 0 min 0 min 199 W/m 6,4 km/h (2 Bft) 100,00 %
08.04.2022 10:44 7,0 C 7,2 C 4,4 C 83 % 999,8 hPa 0,0 l/m 0 min 0 min 197 W/m 6,4 km/h (2 Bft) 100,00 %
08.04.2022 10:46 7,0 C 7,2 C 4,4 C 82 % 999,8 hPa 0,0 l/m 0 min 0 min 199 W/m 6,4 km/h (2 Bft) 100,00 %
08.04.2022 10:48 7,1 C 7,2 C 4,4 C 82 % 999,7 hPa 0,0 l/m 0 min 0 min 201 W/m 6,4 km/h (2 Bft) 100,00 %
08.04.2022 10:50 7,1 C 7,2 C 4,4 C 82 % 999,7 hPa 0,0 l/m 0 min 0 min 208 W/m 6,4 km/h (2 Bft) 97,87 %
08.04.2022 10:52 7,1 C 7,2 C 4,4 C 82 % 999,6 hPa 0,0 l/m 0 min 0 min 211 W/m 6,4 km/h (2 Bft) 100,00 %
08.04.2022 10:54 7,1 C 7,2 C 4,4 C 82 % 999,6 hPa 0,0 l/m 0 min 0 min 211 W/m 6,4 km/h (2 Bft) 100,00 %
08.04.2022 10:56 7,1 C 7,8 C 4,4 C 82 % 999,6 hPa 0,0 l/m 0 min 0 min 211 W/m 6,4 km/h (2 Bft) 100,00 %
08.04.2022 10:58 7,1 C 7,8 C 4,4 C 82 % 999,6 hPa 0,0 l/m 0 min 0 min 214 W/m 3,2 km/h (1 Bft) 97,87 %
08.04.2022 11:00 7,2 C 7,8 C 4,4 C 82 % 999,5 hPa 0,0 l/m 0 min 0 min 222 W/m 6,4 km/h (2 Bft) 97,83 %
08.04.2022 11:02 7,2 C 7,8 C 4,4 C 81 % 999,5 hPa 0,0 l/m 0 min 0 min 228 W/m 3,2 km/h (1 Bft) 97,87 %
08.04.2022 11:04 7,3 C 7,8 C 4,4 C 81 % 999,4 hPa 0,0 l/m 0 min 0 min 233 W/m 6,4 km/h (2 Bft) 100,00 %
08.04.2022 11:06 7,3 C 7,8 C 5,0 C 82 % 999,4 hPa 0,0 l/m 0 min 0 min 238 W/m 6,4 km/h (2 Bft) 97,87 %
08.04.2022 11:08 7,3 C 8,3 C 5,0 C 82 % 999,5 hPa 0,0 l/m 0 min 0 min 236 W/m 3,2 km/h (1 Bft) 95,74 %
08.04.2022 11:10 7,4 C 8,3 C 5,0 C 82 % 999,4 hPa 0,0 l/m 0 min 0 min 236 W/m 6,4 km/h (2 Bft) 97,87 %
08.04.2022 11:12 7,4 C 7,8 C 5,0 C 81 % 999,4 hPa 0,0 l/m 0 min 0 min 241 W/m 9,7 km/h (2 Bft) 95,65 %
08.04.2022 11:14 7,4 C 7,8 C 5,0 C 80 % 999,3 hPa 0,0 l/m 0 min 0 min 249 W/m 9,7 km/h (2 Bft) 95,74 %
08.04.2022 11:16 7,4 C 7,8 C 5,0 C 80 % 999,3 hPa 0,0 l/m 0 min 0 min 256 W/m 12,9 km/h (3 Bft) 93,62 %
08.04.2022 11:18 7,4 C 8,3 C 5,0 C 80 % 999,3 hPa 0,0 l/m 0 min 0 min 262 W/m 6,4 km/h (2 Bft) 93,62 %
08.04.2022 11:20 7,5 C 8,3 C 5,0 C 80 % 999,2 hPa 0,0 l/m 0 min 0 min 266 W/m 9,7 km/h (2 Bft) 93,62 %
08.04.2022 11:22 7,5 C 8,3 C 5,0 C 79 % 999,2 hPa 0,0 l/m 0 min 0 min 264 W/m 6,4 km/h (2 Bft) 95,65 %
08.04.2022 11:24 7,5 C 8,3 C 5,0 C 79 % 999,1 hPa 0,0 l/m 0 min 0 min 265 W/m 6,4 km/h (2 Bft) 95,74 %
08.04.2022 11:26 7,5 C 8,3 C 5,0 C 79 % 999,1 hPa 0,0 l/m 0 min 0 min 269 W/m 6,4 km/h (2 Bft) 95,74 %
08.04.2022 11:28 7,6 C 8,3 C 5,0 C 79 % 999,0 hPa 0,0 l/m 0 min 0 min 272 W/m 3,2 km/h (1 Bft) 95,74 %
08.04.2022 11:30 7,6 C 8,3 C 5,0 C 79 % 999,0 hPa 0,0 l/m 0 min 0 min 271 W/m 6,4 km/h (2 Bft) 95,74 %
08.04.2022 11:32 7,6 C 8,3 C 5,0 C 78 % 999,0 hPa 0,0 l/m 0 min 0 min 268 W/m 12,9 km/h (3 Bft) 95,74 %
08.04.2022 11:34 7,6 C 8,3 C 5,0 C 78 % 999,0 hPa 0,0 l/m 0 min 0 min 262 W/m 9,7 km/h (2 Bft) 93,48 %
08.04.2022 11:36 7,6 C 8,3 C 5,0 C 78 % 998,9 hPa 0,0 l/m 0 min 0 min 255 W/m 16,1 km/h (3 Bft) 95,74 %
08.04.2022 11:38 7,7 C 8,3 C 5,0 C 78 % 998,9 hPa 0,0 l/m 0 min 0 min 257 W/m 12,9 km/h (3 Bft) 95,74 %
08.04.2022 11:40 7,7 C 8,3 C 5,0 C 78 % 998,9 hPa 0,0 l/m 0 min 0 min 258 W/m 19,3 km/h (3 Bft) 93,62 %
08.04.2022 11:42 7,7 C 7,8 C 5,0 C 77 % 998,9 hPa 0,0 l/m 0 min 0 min 266 W/m 12,9 km/h (3 Bft) 93,62 %
08.04.2022 11:44 7,7 C 7,8 C 5,0 C 77 % 998,9 hPa 0,0 l/m 0 min 0 min 266 W/m 12,9 km/h (3 Bft) 95,74 %
08.04.2022 11:46 7,7 C 8,3 C 5,0 C 77 % 998,9 hPa 0,0 l/m 0 min 0 min 263 W/m 9,7 km/h (2 Bft) 97,87 %
08.04.2022 11:48 7,7 C 8,3 C 5,0 C 77 % 998,9 hPa 0,0 l/m 0 min 0 min 259 W/m 16,1 km/h (3 Bft) 97,83 %
08.04.2022 11:50 7,7 C 8,3 C 5,0 C 76 % 998,8 hPa 0,0 l/m 0 min 0 min 254 W/m 12,9 km/h (3 Bft) 95,74 %
08.04.2022 11:52 7,7 C 8,3 C 5,0 C 76 % 998,8 hPa 0,0 l/m 0 min 0 min 248 W/m 12,9 km/h (3 Bft) 100,00 %
08.04.2022 11:54 7,7 C 8,3 C 5,0 C 76 % 998,8 hPa 0,0 l/m 0 min 0 min 245 W/m 9,7 km/h (2 Bft) 95,74 %
08.04.2022 11:56 7,7 C 8,3 C 5,0 C 75 % 998,8 hPa 0,0 l/m 0 min 0 min 243 W/m 6,4 km/h (2 Bft) 95,74 %
08.04.2022 11:58 7,7 C 8,3 C 5,0 C 75 % 998,8 hPa 0,0 l/m 0 min 0 min 242 W/m 12,9 km/h (3 Bft) 100,00 %
08.04.2022 12:00 7,7 C 8,3 C 5,0 C 75 % 998,8 hPa 0,0 l/m 0 min 0 min 237 W/m 6,4 km/h (2 Bft) 97,87 %
08.04.2022 12:02 7,7 C 8,3 C 5,0 C 75 % 998,8 hPa 0,0 l/m 0 min 0 min 229 W/m 9,7 km/h (2 Bft) 100,00 %
08.04.2022 12:04 7,7 C 8,3 C 5,0 C 75 % 998,7 hPa 0,0 l/m 0 min 0 min 224 W/m 6,4 km/h (2 Bft) 100,00 %
08.04.2022 12:08 7,8 C 7,8 C 5,0 C 76 % 998,7 hPa 0,0 l/m 0 min 0 min 221 W/m 12,9 km/h (3 Bft) 98,94 %
08.04.2022 12:10 7,8 C 8,3 C 5,0 C 76 % 998,7 hPa 0,0 l/m 0 min 0 min 220 W/m 6,4 km/h (2 Bft) 100,00 %
08.04.2022 12:12 7,8 C 8,3 C 5,0 C 76 % 998,8 hPa 0,0 l/m 0 min 0 min 220 W/m 3,2 km/h (1 Bft) 100,00 %
08.04.2022 12:14 7,8 C 8,3 C 5,0 C 76 % 998,8 hPa 0,0 l/m 0 min 0 min 223 W/m 6,4 km/h (2 Bft) 100,00 %
08.04.2022 12:16 7,8 C 8,3 C 5,0 C 76 % 998,8 hPa 0,0 l/m 0 min 0 min 225 W/m 6,4 km/h (2 Bft) 100,00 %
08.04.2022 12:18 7,9 C 8,3 C 5,0 C 76 % 998,8 hPa 0,0 l/m 0 min 0 min 228 W/m 6,4 km/h (2 Bft) 100,00 %
08.04.2022 12:20 7,9 C 8,3 C 5,0 C 76 % 998,9 hPa 0,0 l/m 0 min 0 min 235 W/m 9,7 km/h (2 Bft) 97,83 %
08.04.2022 12:22 7,9 C 8,3 C 5,0 C 75 % 998,8 hPa 0,0 l/m 0 min 0 min 243 W/m 12,9 km/h (3 Bft) 100,00 %
08.04.2022 12:24 7,9 C 8,3 C 5,0 C 75 % 998,8 hPa 0,0 l/m 0 min 0 min 243 W/m 6,4 km/h (2 Bft) 100,00 %
08.04.2022 12:26 7,9 C 8,3 C 5,0 C 75 % 998,9 hPa 0,0 l/m 0 min 0 min 240 W/m 6,4 km/h (2 Bft) 97,87 %
08.04.2022 12:28 7,9 C 8,3 C 5,0 C 75 % 998,8 hPa 0,0 l/m 0 min 0 min 237 W/m 6,4 km/h (2 Bft) 97,87 %
08.04.2022 12:30 7,9 C 8,3 C 5,0 C 75 % 998,9 hPa 0,0 l/m 0 min 0 min 231 W/m 12,9 km/h (3 Bft) 100,00 %
08.04.2022 12:32 7,9 C 8,3 C 5,0 C 75 % 998,8 hPa 0,0 l/m 0 min 0 min 227 W/m 6,4 km/h (2 Bft) 100,00 %
08.04.2022 12:34 7,9 C 8,3 C 5,0 C 75 % 998,8 hPa 0,0 l/m 0 min 0 min 227 W/m 12,9 km/h (3 Bft) 97,87 %
08.04.2022 12:36 8,0 C 8,3 C 5,0 C 75 % 998,8 hPa 0,0 l/m 0 min 0 min 226 W/m 12,9 km/h (3 Bft) 100,00 %
08.04.2022 12:38 7,9 C 8,3 C 5,0 C 74 % 998,7 hPa 0,0 l/m 0 min 0 min 219 W/m 12,9 km/h (3 Bft) 97,87 %
08.04.2022 12:40 7,9 C 8,3 C 5,0 C 75 % 998,8 hPa 0,0 l/m 0 min 0 min 215 W/m 6,4 km/h (2 Bft) 100,00 %
08.04.2022 12:42 8,0 C 8,3 C 5,0 C 75 % 998,7 hPa 0,0 l/m 0 min 0 min 229 W/m 6,4 km/h (2 Bft) 95,74 %
08.04.2022 12:44 8,0 C 8,3 C 5,0 C 74 % 998,7 hPa 0,0 l/m 0 min 0 min 239 W/m 19,3 km/h (3 Bft) 97,83 %
08.04.2022 12:46 8,0 C 8,3 C 5,0 C 74 % 998,6 hPa 0,0 l/m 0 min 0 min 231 W/m 6,4 km/h (2 Bft) 97,87 %
08.04.2022 12:48 8,0 C 8,3 C 5,0 C 74 % 998,6 hPa 0,0 l/m 0 min 0 min 217 W/m 3,2 km/h (1 Bft) 97,87 %
08.04.2022 12:50 8,1 C 8,3 C 5,0 C 74 % 998,6 hPa 0,0 l/m 0 min 0 min 219 W/m 12,9 km/h (3 Bft) 93,62 %
08.04.2022 12:52 8,1 C 8,3 C 5,0 C 74 % 998,5 hPa 0,0 l/m 0 min 0 min 221 W/m 6,4 km/h (2 Bft) 97,87 %
08.04.2022 12:54 8,1 C 8,3 C 5,0 C 73 % 998,5 hPa 0,0 l/m 0 min 0 min 219 W/m 22,5 km/h (4 Bft) 97,87 %
08.04.2022 12:56 8,1 C 8,3 C 5,0 C 72 % 998,5 hPa 0,0 l/m 0 min 0 min 215 W/m 19,3 km/h (3 Bft) 97,83 %
08.04.2022 12:58 8,0 C 7,8 C 5,0 C 72 % 998,5 hPa 0,0 l/m 0 min 0 min 206 W/m 19,3 km/h (3 Bft) 95,74 %
08.04.2022 13:00 7,9 C 7,8 C 5,0 C 71 % 998,4 hPa 0,0 l/m 0 min 0 min 203 W/m 12,9 km/h (3 Bft) 97,87 %
08.04.2022 13:02 7,9 C 7,8 C 5,0 C 71 % 998,3 hPa 0,0 l/m 0 min 0 min 207 W/m 12,9 km/h (3 Bft) 95,74 %
08.04.2022 13:04 7,9 C 7,8 C 5,0 C 72 % 998,2 hPa 0,0 l/m 0 min 0 min 215 W/m 16,1 km/h (3 Bft) 97,87 %
08.04.2022 13:06 7,9 C 8,3 C 5,0 C 72 % 998,2 hPa 0,0 l/m 0 min 0 min 215 W/m 6,4 km/h (2 Bft) 97,87 %
08.04.2022 13:08 7,9 C 8,3 C 5,0 C 72 % 998,1 hPa 0,0 l/m 0 min 0 min 223 W/m 6,4 km/h (2 Bft) 97,83 %
08.04.2022 13:10 8,0 C 8,3 C 5,0 C 72 % 998,1 hPa 0,0 l/m 0 min 0 min 233 W/m 16,1 km/h (3 Bft) 97,87 %
08.04.2022 13:12 8,1 C 8,3 C 5,0 C 73 % 998,1 hPa 0,0 l/m 0 min 0 min 238 W/m 6,4 km/h (2 Bft) 95,74 %
08.04.2022 13:14 8,1 C 8,3 C 5,0 C 73 % 998,1 hPa 0,0 l/m 0 min 0 min 227 W/m 6,4 km/h (2 Bft) 97,87 %
08.04.2022 13:16 8,1 C 8,3 C 5,0 C 73 % 998,1 hPa 0,0 l/m 0 min 0 min 218 W/m 12,9 km/h (3 Bft) 97,87 %
08.04.2022 13:18 8,1 C 8,3 C 5,0 C 72 % 998,1 hPa 0,0 l/m 0 min 0 min 236 W/m 12,9 km/h (3 Bft) 97,87 %
08.04.2022 13:20 8,1 C 8,3 C 5,0 C 71 % 998,0 hPa 0,0 l/m 0 min 0 min 251 W/m 12,9 km/h (3 Bft) 95,65 %
08.04.2022 13:22 8,1 C 8,3 C 5,0 C 71 % 998,0 hPa 0,0 l/m 0 min 0 min 276 W/m 16,1 km/h (3 Bft) 93,62 %
08.04.2022 13:24 8,1 C 8,3 C 5,0 C 70 % 998,0 hPa 0,0 l/m 0 min 0 min 269 W/m 9,7 km/h (2 Bft) 95,74 %
08.04.2022 13:26 8,1 C 8,3 C 5,0 C 70 % 998,0 hPa 0,0 l/m 0 min 0 min 246 W/m 9,7 km/h (2 Bft) 95,74 %
08.04.2022 13:28 8,2 C 8,3 C 5,0 C 71 % 998,0 hPa 0,0 l/m 0 min 0 min 234 W/m 12,9 km/h (3 Bft) 93,62 %
08.04.2022 13:30 8,2 C 8,9 C 5,0 C 71 % 998,0 hPa 0,0 l/m 0 min 0 min 240 W/m 3,2 km/h (1 Bft) 95,65 %
08.04.2022 13:32 8,2 C 8,9 C 5,0 C 71 % 998,0 hPa 0,0 l/m 0 min 0 min 255 W/m 9,7 km/h (2 Bft) 95,74 %
08.04.2022 13:34 8,2 C 8,3 C 5,0 C 70 % 998,0 hPa 0,0 l/m 0 min 0 min 254 W/m 12,9 km/h (3 Bft) 93,62 %
08.04.2022 13:36 8,2 C 8,9 C 5,0 C 70 % 997,9 hPa 0,0 l/m 0 min 0 min 248 W/m 6,4 km/h (2 Bft) 93,62 %
08.04.2022 13:38 8,3 C 8,9 C 5,6 C 70 % 997,9 hPa 0,0 l/m 0 min 0 min 243 W/m 3,2 km/h (1 Bft) 97,14 %
08.04.2022 13:40 8,3 C 8,9 C 5,0 C 70 % 997,8 hPa 0,0 l/m 0 min 0 min 241 W/m 12,9 km/h (3 Bft) 91,49 %
08.04.2022 13:42 8,3 C 8,9 C 5,6 C 71 % 997,8 hPa 0,0 l/m 0 min 0 min 243 W/m 6,4 km/h (2 Bft) 95,74 %
08.04.2022 13:44 8,3 C 8,9 C 5,6 C 70 % 997,9 hPa 0,0 l/m 0 min 0 min 245 W/m 3,2 km/h (1 Bft) 95,74 %
08.04.2022 13:46 8,3 C 8,9 C 5,6 C 70 % 997,9 hPa 0,0 l/m 0 min 0 min 246 W/m 6,4 km/h (2 Bft) 95,65 %
08.04.2022 13:48 8,4 C 8,9 C 5,6 C 70 % 997,8 hPa 0,0 l/m 0 min 0 min 249 W/m 16,1 km/h (3 Bft) 93,62 %
08.04.2022 13:50 8,4 C 8,9 C 5,6 C 69 % 997,7 hPa 0,0 l/m 0 min 0 min 253 W/m 16,1 km/h (3 Bft) 95,74 %
08.04.2022 13:52 8,4 C 8,9 C 5,6 C 70 % 997,7 hPa 0,0 l/m 0 min 0 min 251 W/m 6,4 km/h (2 Bft) 97,87 %
08.04.2022 13:54 8,4 C 8,9 C 5,6 C 69 % 997,8 hPa 0,0 l/m 0 min 0 min 242 W/m 6,4 km/h (2 Bft) 95,74 %
08.04.2022 13:56 8,4 C 8,9 C 5,6 C 69 % 997,7 hPa 0,0 l/m 0 min 0 min 236 W/m 9,7 km/h (2 Bft) 93,62 %
08.04.2022 13:58 8,4 C 8,9 C 5,6 C 69 % 997,7 hPa 0,0 l/m 0 min 0 min 232 W/m 9,7 km/h (2 Bft) 95,65 %
08.04.2022 14:00 8,5 C 8,9 C 5,6 C 69 % 997,6 hPa 0,0 l/m 0 min 0 min 229 W/m 6,4 km/h (2 Bft) 97,87 %
08.04.2022 14:02 8,5 C 8,9 C 5,6 C 69 % 997,6 hPa 0,0 l/m 0 min 0 min 236 W/m 6,4 km/h (2 Bft) 100,00 %
08.04.2022 14:04 8,5 C 8,9 C 5,6 C 69 % 997,6 hPa 0,0 l/m 0 min 0 min 242 W/m 12,9 km/h (3 Bft) 95,74 %
08.04.2022 14:06 8,5 C 8,9 C 5,6 C 69 % 997,5 hPa 0,0 l/m 0 min 0 min 243 W/m 9,7 km/h (2 Bft) 95,74 %
08.04.2022 14:08 8,5 C 8,9 C 5,6 C 69 % 997,5 hPa 0,0 l/m 0 min 0 min 240 W/m 6,4 km/h (2 Bft) 97,83 %
08.04.2022 14:10 8,5 C 8,3 C 5,0 C 68 % 997,5 hPa 0,0 l/m 0 min 0 min 238 W/m 6,4 km/h (2 Bft) 95,74 %
08.04.2022 14:12 8,4 C 8,3 C 5,0 C 68 % 997,4 hPa 0,0 l/m 0 min 0 min 234 W/m 12,9 km/h (3 Bft) 97,87 %
08.04.2022 14:14 8,4 C 8,3 C 5,0 C 68 % 997,4 hPa 0,0 l/m 0 min 0 min 225 W/m 9,7 km/h (2 Bft) 95,74 %
08.04.2022 14:16 8,4 C 8,3 C 5,0 C 68 % 997,4 hPa 0,0 l/m 0 min 0 min 221 W/m 9,7 km/h (2 Bft) 100,00 %
08.04.2022 14:18 8,3 C 8,3 C 5,0 C 67 % 997,4 hPa 0,0 l/m 0 min 0 min 222 W/m 6,4 km/h (2 Bft) 100,00 %
08.04.2022 14:20 8,3 C 8,3 C 5,0 C 67 % 997,3 hPa 0,0 l/m 0 min 0 min 228 W/m 6,4 km/h (2 Bft) 97,83 %
08.04.2022 14:22 8,3 C 8,3 C 5,0 C 67 % 997,3 hPa 0,0 l/m 0 min 0 min 237 W/m 6,4 km/h (2 Bft) 100,00 %
08.04.2022 14:24 8,3 C 8,9 C 5,0 C 67 % 997,3 hPa 0,0 l/m 0 min 0 min 245 W/m 6,4 km/h (2 Bft) 100,00 %
08.04.2022 14:26 8,3 C 8,9 C 5,6 C 67 % 997,3 hPa 0,0 l/m 0 min 0 min 242 W/m 9,7 km/h (2 Bft) 100,00 %
08.04.2022 14:28 8,4 C 8,9 C 5,6 C 67 % 997,4 hPa 0,0 l/m 0 min 0 min 240 W/m 3,2 km/h (1 Bft) 100,00 %
08.04.2022 14:30 8,3 C 8,3 C 5,0 C 66 % 997,4 hPa 0,0 l/m 0 min 0 min 238 W/m 6,4 km/h (2 Bft) 97,87 %
08.04.2022 14:32 8,3 C 8,3 C 5,0 C 65 % 997,4 hPa 0,0 l/m 0 min 0 min 243 W/m 9,7 km/h (2 Bft) 100,00 %
08.04.2022 14:34 8,3 C 8,3 C 5,0 C 64 % 997,4 hPa 0,0 l/m 0 min 0 min 245 W/m 6,4 km/h (2 Bft) 100,00 %
08.04.2022 14:36 8,3 C 8,3 C 5,0 C 64 % 997,4 hPa 0,0 l/m 0 min 0 min 239 W/m 6,4 km/h (2 Bft) 100,00 %
08.04.2022 14:38 8,3 C 8,3 C 5,0 C 64 % 997,4 hPa 0,0 l/m 0 min 0 min 238 W/m 6,4 km/h (2 Bft) 100,00 %
08.04.2022 14:40 8,3 C 8,3 C 5,0 C 65 % 997,3 hPa 0,0 l/m 0 min 0 min 245 W/m 6,4 km/h (2 Bft) 100,00 %
08.04.2022 14:42 8,3 C 8,3 C 5,0 C 65 % 997,3 hPa 0,0 l/m 0 min 0 min 248 W/m 9,7 km/h (2 Bft) 100,00 %
08.04.2022 14:44 8,3 C 8,3 C 5,0 C 66 % 997,3 hPa 0,0 l/m 0 min 0 min 248 W/m 9,7 km/h (2 Bft) 97,83 %
08.04.2022 14:46 8,3 C 8,3 C 5,0 C 66 % 997,3 hPa 0,0 l/m 0 min 0 min 250 W/m 9,7 km/h (2 Bft) 100,00 %
08.04.2022 14:48 8,3 C 8,3 C 5,0 C 66 % 997,3 hPa 0,0 l/m 0 min 0 min 250 W/m 9,7 km/h (2 Bft) 100,00 %
08.04.2022 14:50 8,3 C 8,3 C 5,0 C 65 % 997,3 hPa 0,0 l/m 0 min 0 min 246 W/m 12,9 km/h (3 Bft) 100,00 %
08.04.2022 14:52 8,3 C 8,3 C 5,0 C 66 % 997,4 hPa 0,0 l/m 0 min 0 min 243 W/m 9,7 km/h (2 Bft) 100,00 %
08.04.2022 14:54 8,3 C 8,3 C 5,0 C 66 % 997,4 hPa 0,0 l/m 0 min 0 min 237 W/m 12,9 km/h (3 Bft) 100,00 %
08.04.2022 14:56 8,3 C 8,3 C 5,0 C 66 % 997,4 hPa 0,0 l/m 0 min 0 min 226 W/m 6,4 km/h (2 Bft) 97,83 %
08.04.2022 14:58 8,3 C 8,3 C 5,0 C 66 % 997,3 hPa 0,0 l/m 0 min 0 min 211 W/m 9,7 km/h (2 Bft) 97,87 %
08.04.2022 15:00 8,3 C 8,3 C 5,0 C 66 % 997,3 hPa 0,0 l/m 0 min 0 min 195 W/m 9,7 km/h (2 Bft) 95,74 %
08.04.2022 15:02 8,3 C 8,3 C 5,0 C 65 % 997,3 hPa 0,0 l/m 0 min 0 min 199 W/m 6,4 km/h (2 Bft) 100,00 %
08.04.2022 15:04 8,3 C 8,3 C 5,0 C 66 % 997,3 hPa 0,0 l/m 0 min 0 min 206 W/m 6,4 km/h (2 Bft) 100,00 %
08.04.2022 15:06 8,3 C 8,3 C 5,0 C 66 % 997,3 hPa 0,0 l/m 0 min 0 min 197 W/m 6,4 km/h (2 Bft) 97,87 %
08.04.2022 15:08 8,2 C 8,3 C 5,0 C 66 % 997,2 hPa 0,0 l/m 0 min 0 min 194 W/m 3,2 km/h (1 Bft) 100,00 %
08.04.2022 15:10 8,2 C 8,3 C 5,0 C 66 % 997,2 hPa 0,0 l/m 0 min 0 min 206 W/m 6,4 km/h (2 Bft) 100,00 %
08.04.2022 15:12 8,3 C 8,3 C 5,0 C 66 % 997,2 hPa 0,0 l/m 0 min 0 min 225 W/m 6,4 km/h (2 Bft) 100,00 %
08.04.2022 15:14 8,3 C 8,3 C 5,0 C 66 % 997,2 hPa 0,0 l/m 0 min 0 min 230 W/m 9,7 km/h (2 Bft) 100,00 %
08.04.2022 15:16 8,3 C 8,3 C 5,0 C 66 % 997,2 hPa 0,0 l/m 0 min 0 min 214 W/m 6,4 km/h (2 Bft) 100,00 %
08.04.2022 15:18 8,3 C 8,3 C 5,0 C 66 % 997,2 hPa 0,0 l/m 0 min 0 min 200 W/m 3,2 km/h (1 Bft) 97,87 %
08.04.2022 15:20 8,3 C 8,3 C 5,0 C 66 % 997,2 hPa 0,0 l/m 0 min 0 min 190 W/m 9,7 km/h (2 Bft) 100,00 %
08.04.2022 15:22 8,2 C 8,3 C 5,0 C 66 % 997,2 hPa 0,0 l/m 0 min 0 min 181 W/m 6,4 km/h (2 Bft) 100,00 %
08.04.2022 15:24 8,2 C 8,3 C 5,0 C 66 % 997,2 hPa 0,0 l/m 0 min 0 min 184 W/m 9,7 km/h (2 Bft) 97,87 %
08.04.2022 15:26 8,2 C 8,3 C 5,0 C 67 % 997,1 hPa 0,0 l/m 0 min 0 min 194 W/m 6,4 km/h (2 Bft) 100,00 %
08.04.2022 15:28 8,3 C 8,3 C 5,0 C 67 % 997,1 hPa 0,0 l/m 0 min 0 min 197 W/m 6,4 km/h (2 Bft) 100,00 %
08.04.2022 15:30 8,3 C 8,3 C 5,0 C 65 % 997,1 hPa 0,0 l/m 0 min 0 min 200 W/m 6,4 km/h (2 Bft) 100,00 %
08.04.2022 15:32 8,3 C 8,3 C 5,0 C 64 % 997,1 hPa 0,0 l/m 0 min 0 min 215 W/m 6,4 km/h (2 Bft) 100,00 %
08.04.2022 15:34 8,3 C 8,9 C 5,0 C 64 % 997,2 hPa 0,0 l/m 0 min 0 min 222 W/m 6,4 km/h (2 Bft) 97,87 %
08.04.2022 15:36 8,3 C 8,3 C 5,0 C 64 % 997,2 hPa 0,0 l/m 0 min 0 min 234 W/m 12,9 km/h (3 Bft) 100,00 %
08.04.2022 15:38 8,3 C 8,3 C 5,0 C 63 % 997,2 hPa 0,0 l/m 0 min 0 min 239 W/m 9,7 km/h (2 Bft) 97,87 %
08.04.2022 15:40 8,3 C 8,9 C 5,0 C 63 % 997,2 hPa 0,0 l/m 0 min 0 min 225 W/m 6,4 km/h (2 Bft) 97,87 %
08.04.2022 15:42 8,3 C 8,9 C 5,0 C 63 % 997,1 hPa 0,0 l/m 0 min 0 min 216 W/m 16,1 km/h (3 Bft) 97,83 %
08.04.2022 15:44 8,4 C 8,9 C 5,0 C 64 % 997,2 hPa 0,0 l/m 0 min 0 min 220 W/m 9,7 km/h (2 Bft) 95,74 %
08.04.2022 15:46 8,4 C 8,9 C 5,0 C 64 % 997,2 hPa 0,0 l/m 0 min 0 min 221 W/m 6,4 km/h (2 Bft) 95,74 %
08.04.2022 15:48 8,4 C 8,9 C 5,0 C 64 % 997,2 hPa 0,0 l/m 0 min 0 min 207 W/m 9,7 km/h (2 Bft) 97,87 %
08.04.2022 15:50 8,4 C 8,9 C 5,0 C 65 % 997,1 hPa 0,0 l/m 0 min 0 min 217 W/m 9,7 km/h (2 Bft) 97,87 %
08.04.2022 15:52 8,4 C 8,9 C 5,0 C 65 % 997,1 hPa 0,0 l/m 0 min 0 min 256 W/m 3,2 km/h (1 Bft) 95,74 %
08.04.2022 15:54 8,4 C 9,4 C 5,6 C 66 % 997,2 hPa 0,0 l/m 0 min 0 min 295 W/m 6,4 km/h (2 Bft) 97,83 %
08.04.2022 15:56 8,5 C 9,4 C 5,6 C 66 % 997,2 hPa 0,0 l/m 0 min 0 min 289 W/m 6,4 km/h (2 Bft) 93,62 %
08.04.2022 15:58 8,6 C 9,4 C 5,6 C 66 % 997,2 hPa 0,0 l/m 0 min 0 min 263 W/m 16,1 km/h (3 Bft) 97,87 %
08.04.2022 16:00 8,6 C 9,4 C 5,6 C 66 % 997,2 hPa 0,0 l/m 0 min 0 min 250 W/m 9,7 km/h (2 Bft) 95,74 %
08.04.2022 16:02 8,6 C 9,4 C 5,6 C 66 % 997,2 hPa 0,0 l/m 0 min 0 min 244 W/m 16,1 km/h (3 Bft) 91,49 %
08.04.2022 16:04 8,6 C 8,9 C 5,0 C 65 % 997,2 hPa 0,0 l/m 0 min 0 min 243 W/m 12,9 km/h (3 Bft) 93,62 %
08.04.2022 16:06 8,6 C 8,3 C 5,0 C 64 % 997,1 hPa 0,0 l/m 0 min 0 min 253 W/m 9,7 km/h (2 Bft) 95,65 %
08.04.2022 16:08 8,6 C 8,9 C 5,0 C 64 % 997,1 hPa 0,0 l/m 0 min 0 min 267 W/m 9,7 km/h (2 Bft) 95,74 %
08.04.2022 16:10 8,5 C 8,9 C 5,0 C 64 % 997,1 hPa 0,0 l/m 0 min 0 min 261 W/m 6,4 km/h (2 Bft) 95,74 %
08.04.2022 16:12 8,6 C 8,9 C 5,0 C 64 % 997,0 hPa 0,0 l/m 0 min 0 min 245 W/m 9,7 km/h (2 Bft) 93,62 %
08.04.2022 16:14 8,6 C 8,9 C 5,0 C 63 % 997,0 hPa 0,0 l/m 0 min 0 min 244 W/m 9,7 km/h (2 Bft) 91,49 %
08.04.2022 16:16 8,6 C 8,9 C 5,0 C 63 % 997,0 hPa 0,0 l/m 0 min 0 min 240 W/m 9,7 km/h (2 Bft) 93,62 %
08.04.2022 16:18 8,6 C 8,9 C 5,0 C 64 % 997,1 hPa 0,0 l/m 0 min 0 min 239 W/m 9,7 km/h (2 Bft) 93,48 %
08.04.2022 16:20 8,6 C 8,9 C 5,0 C 65 % 997,1 hPa 0,0 l/m 0 min 0 min 241 W/m 6,4 km/h (2 Bft) 95,74 %
08.04.2022 16:22 8,6 C 8,9 C 5,0 C 65 % 997,1 hPa 0,0 l/m 0 min 0 min 244 W/m 3,2 km/h (1 Bft) 95,74 %
08.04.2022 16:24 8,6 C 8,9 C 5,6 C 65 % 997,1 hPa 0,0 l/m 0 min 0 min 237 W/m 12,9 km/h (3 Bft) 95,74 %
08.04.2022 16:26 8,6 C 8,9 C 5,6 C 66 % 997,1 hPa 0,0 l/m 0 min 0 min 229 W/m 6,4 km/h (2 Bft) 91,49 %
08.04.2022 16:28 8,6 C 8,9 C 5,6 C 66 % 997,1 hPa 0,0 l/m 0 min 0 min 226 W/m 9,7 km/h (2 Bft) 48,78 %
08.04.2022 16:30 8,6 C 8,9 C 5,6 C 65 % 997,1 hPa 0,0 l/m 0 min 0 min 227 W/m 6,4 km/h (2 Bft) 95,65 %
08.04.2022 16:32 8,6 C 9,4 C 5,6 C 66 % 997,1 hPa 0,0 l/m 0 min 0 min 233 W/m 3,2 km/h (1 Bft) 95,74 %
08.04.2022 16:34 8,6 C 8,9 C 5,6 C 66 % 997,0 hPa 0,0 l/m 0 min 0 min 235 W/m 6,4 km/h (2 Bft) 93,62 %
08.04.2022 16:36 8,6 C 8,9 C 5,0 C 65 % 997,0 hPa 0,0 l/m 0 min 0 min 244 W/m 6,4 km/h (2 Bft) 95,74 %
08.04.2022 16:38 8,6 C 8,9 C 5,6 C 65 % 997,0 hPa 0,0 l/m 0 min 0 min 251 W/m 3,2 km/h (1 Bft) 95,74 %
08.04.2022 16:40 8,6 C 9,4 C 5,6 C 65 % 997,0 hPa 0,0 l/m 0 min 0 min 222 W/m 9,7 km/h (2 Bft) 95,65 %
08.04.2022 16:42 8,7 C 9,4 C 5,6 C 65 % 997,0 hPa 0,0 l/m 0 min 0 min 193 W/m 9,7 km/h (2 Bft) 97,87 %
08.04.2022 16:44 8,7 C 9,4 C 5,6 C 64 % 997,1 hPa 0,0 l/m 0 min 0 min 194 W/m 9,7 km/h (2 Bft) 95,74 %
08.04.2022 16:46 8,7 C 9,4 C 5,6 C 64 % 997,1 hPa 0,0 l/m 0 min 0 min 206 W/m 3,2 km/h (1 Bft) 97,87 %
08.04.2022 16:48 8,8 C 9,4 C 5,6 C 64 % 997,0 hPa 0,0 l/m 0 min 0 min 207 W/m 6,4 km/h (2 Bft) 95,74 %
08.04.2022 16:50 8,8 C 8,9 C 5,6 C 64 % 997,1 hPa 0,0 l/m 0 min 0 min 210 W/m 12,9 km/h (3 Bft) 97,87 %
08.04.2022 16:52 8,8 C 8,9 C 5,6 C 63 % 997,1 hPa 0,0 l/m 0 min 0 min 217 W/m 12,9 km/h (3 Bft) 95,65 %
08.04.2022 16:54 8,8 C 8,9 C 5,6 C 63 % 997,0 hPa 0,0 l/m 0 min 0 min 213 W/m 12,9 km/h (3 Bft) 95,74 %
08.04.2022 16:56 8,7 C 8,9 C 5,0 C 63 % 997,0 hPa 0,0 l/m 0 min 0 min 207 W/m 9,7 km/h (2 Bft) 97,87 %
08.04.2022 16:58 8,7 C 8,9 C 5,6 C 63 % 996,9 hPa 0,0 l/m 0 min 0 min 210 W/m 12,9 km/h (3 Bft) 97,87 %
08.04.2022 17:00 8,7 C 8,9 C 5,6 C 64 % 996,9 hPa 0,0 l/m 0 min 0 min 217 W/m 9,7 km/h (2 Bft) 95,74 %
08.04.2022 17:02 8,8 C 8,9 C 5,6 C 65 % 997,0 hPa 0,0 l/m 0 min 0 min 214 W/m 6,4 km/h (2 Bft) 93,62 %
08.04.2022 17:04 8,7 C 8,9 C 5,0 C 64 % 996,9 hPa 0,0 l/m 0 min 0 min 196 W/m 6,4 km/h (2 Bft) 97,83 %
08.04.2022 17:06 8,7 C 8,9 C 5,0 C 65 % 997,0 hPa 0,0 l/m 0 min 0 min 190 W/m 6,4 km/h (2 Bft) 97,87 %
08.04.2022 17:08 8,7 C 8,9 C 5,6 C 65 % 997,0 hPa 0,0 l/m 0 min 0 min 186 W/m 6,4 km/h (2 Bft) 97,87 %
08.04.2022 17:10 8,7 C 8,9 C 5,6 C 65 % 997,0 hPa 0,0 l/m 0 min 0 min 178 W/m 6,4 km/h (2 Bft) 97,87 %
08.04.2022 17:12 8,7 C 8,9 C 5,6 C 65 % 997,0 hPa 0,0 l/m 0 min 0 min 178 W/m 9,7 km/h (2 Bft) 97,87 %
08.04.2022 17:14 8,7 C 8,3 C 5,0 C 64 % 997,0 hPa 0,0 l/m 0 min 0 min 176 W/m 3,2 km/h (1 Bft) 97,87 %
08.04.2022 17:16 8,7 C 8,3 C 5,0 C 64 % 997,1 hPa 0,0 l/m 0 min 0 min 160 W/m 6,4 km/h (2 Bft) 97,83 %
08.04.2022 17:18 8,7 C 8,3 C 5,0 C 65 % 997,1 hPa 0,0 l/m 0 min 0 min 155 W/m 6,4 km/h (2 Bft) 97,87 %
08.04.2022 17:20 8,6 C 8,3 C 5,0 C 65 % 997,1 hPa 0,0 l/m 0 min 0 min 164 W/m 3,2 km/h (1 Bft) 100,00 %
08.04.2022 17:22 8,6 C 8,3 C 5,0 C 65 % 997,1 hPa 0,0 l/m 0 min 0 min 178 W/m 9,7 km/h (2 Bft) 100,00 %
08.04.2022 17:24 8,6 C 8,3 C 5,0 C 65 % 997,1 hPa 0,0 l/m 0 min 0 min 187 W/m 3,2 km/h (1 Bft) 100,00 %
08.04.2022 17:26 8,7 C 8,9 C 5,0 C 66 % 997,2 hPa 0,0 l/m 0 min 0 min 187 W/m 6,4 km/h (2 Bft) 100,00 %
08.04.2022 17:28 8,7 C 8,9 C 5,0 C 66 % 997,2 hPa 0,0 l/m 0 min 0 min 171 W/m 6,4 km/h (2 Bft) 95,74 %
08.04.2022 17:30 8,7 C 8,9 C 5,6 C 67 % 997,2 hPa 0,0 l/m 0 min 0 min 134 W/m 12,9 km/h (3 Bft) 100,00 %
08.04.2022 17:32 8,7 C 8,3 C 5,0 C 67 % 997,1 hPa 0,0 l/m 0 min 0 min 107 W/m 6,4 km/h (2 Bft) 100,00 %
08.04.2022 17:34 8,7 C 8,3 C 5,0 C 67 % 997,1 hPa 0,0 l/m 0 min 0 min 107 W/m 6,4 km/h (2 Bft) 100,00 %
08.04.2022 17:36 8,7 C 8,3 C 5,0 C 67 % 997,2 hPa 0,0 l/m 0 min 0 min 114 W/m 6,4 km/h (2 Bft) 97,87 %
08.04.2022 17:38 8,7 C 8,3 C 5,0 C 67 % 997,2 hPa 0,0 l/m 0 min 0 min 117 W/m 6,4 km/h (2 Bft) 100,00 %
08.04.2022 17:40 8,7 C 8,3 C 5,0 C 67 % 997,2 hPa 0,0 l/m 0 min 0 min 109 W/m 6,4 km/h (2 Bft) 100,00 %
08.04.2022 17:42 8,7 C 8,3 C 5,0 C 67 % 997,2 hPa 0,0 l/m 0 min 0 min 101 W/m 6,4 km/h (2 Bft) 97,87 %
08.04.2022 17:44 8,7 C 8,3 C 5,0 C 67 % 997,3 hPa 0,0 l/m 0 min 0 min 92 W/m 3,2 km/h (1 Bft) 100,00 %
08.04.2022 17:46 8,6 C 8,3 C 5,0 C 67 % 997,3 hPa 0,0 l/m 0 min 0 min 93 W/m 6,4 km/h (2 Bft) 95,74 %
08.04.2022 17:48 8,6 C 8,3 C 5,0 C 67 % 997,3 hPa 0,0 l/m 0 min 0 min 100 W/m 3,2 km/h (1 Bft) 100,00 %
08.04.2022 17:50 8,6 C 8,3 C 5,0 C 67 % 997,4 hPa 0,0 l/m 0 min 0 min 109 W/m 3,2 km/h (1 Bft) 100,00 %
08.04.2022 17:52 8,6 C 8,3 C 5,0 C 68 % 997,3 hPa 0,0 l/m 0 min 0 min 112 W/m 9,7 km/h (2 Bft) 100,00 %
08.04.2022 17:54 8,6 C 8,3 C 5,0 C 68 % 997,4 hPa 0,0 l/m 0 min 0 min 106 W/m 6,4 km/h (2 Bft) 97,87 %
08.04.2022 17:56 8,6 C 8,3 C 5,0 C 68 % 997,5 hPa 0,0 l/m 0 min 0 min 112 W/m 6,4 km/h (2 Bft) 95,74 %
08.04.2022 17:58 8,6 C 8,3 C 5,0 C 68 % 997,5 hPa 0,0 l/m 0 min 0 min 120 W/m 6,4 km/h (2 Bft) 97,87 %
08.04.2022 18:00 8,6 C 8,3 C 5,0 C 68 % 997,4 hPa 0,0 l/m 0 min 0 min 126 W/m 6,4 km/h (2 Bft) 97,83 %
08.04.2022 18:02 8,6 C 8,3 C 5,0 C 67 % 997,4 hPa 0,0 l/m 0 min 0 min 131 W/m 6,4 km/h (2 Bft) 97,87 %
08.04.2022 18:04 8,5 C 8,3 C 5,0 C 68 % 997,5 hPa 0,0 l/m 0 min 0 min 120 W/m 6,4 km/h (2 Bft) 97,87 %
08.04.2022 18:08 8,5 C 8,3 C 5,0 C 69 % 997,4 hPa 0,0 l/m 0 min 0 min 98 W/m 6,4 km/h (2 Bft) 96,84 %
08.04.2022 18:10 8,5 C 8,3 C 4,4 C 69 % 997,5 hPa 0,0 l/m 0 min 0 min 97 W/m 3,2 km/h (1 Bft) 97,83 %
08.04.2022 18:12 8,5 C 8,3 C 5,0 C 69 % 997,5 hPa 0,0 l/m 0 min 0 min 110 W/m 6,4 km/h (2 Bft) 97,87 %
08.04.2022 18:14 8,6 C 8,3 C 5,0 C 70 % 997,4 hPa 0,0 l/m 0 min 0 min 125 W/m 6,4 km/h (2 Bft) 97,87 %
08.04.2022 18:16 8,6 C 8,3 C 5,0 C 70 % 997,5 hPa 0,0 l/m 0 min 0 min 135 W/m 3,2 km/h (1 Bft) 97,87 %
08.04.2022 18:18 8,6 C 8,3 C 5,0 C 69 % 997,4 hPa 0,0 l/m 0 min 0 min 133 W/m 9,7 km/h (2 Bft) 97,87 %
08.04.2022 18:20 8,6 C 8,3 C 5,0 C 69 % 997,4 hPa 0,0 l/m 0 min 0 min 122 W/m 6,4 km/h (2 Bft) 97,87 %
08.04.2022 18:22 8,6 C 8,3 C 5,0 C 69 % 997,4 hPa 0,0 l/m 0 min 0 min 118 W/m 3,2 km/h (1 Bft) 97,83 %
08.04.2022 18:24 8,6 C 8,3 C 5,0 C 69 % 997,4 hPa 0,0 l/m 0 min 0 min 115 W/m 6,4 km/h (2 Bft) 97,87 %
08.04.2022 18:26 8,6 C 8,3 C 5,0 C 69 % 997,5 hPa 0,0 l/m 0 min 0 min 113 W/m 12,9 km/h (3 Bft) 97,87 %
08.04.2022 18:28 8,6 C 8,3 C 5,0 C 69 % 997,5 hPa 0,0 l/m 0 min 0 min 111 W/m 9,7 km/h (2 Bft) 100,00 %
08.04.2022 18:30 8,6 C 8,3 C 5,0 C 69 % 997,5 hPa 0,0 l/m 0 min 0 min 110 W/m 6,4 km/h (2 Bft) 100,00 %
08.04.2022 18:32 8,5 C 8,3 C 5,0 C 69 % 997,5 hPa 0,0 l/m 0 min 0 min 111 W/m 3,2 km/h (1 Bft) 97,87 %
08.04.2022 18:34 8,5 C 8,3 C 4,4 C 69 % 997,5 hPa 0,0 l/m 0 min 0 min 106 W/m 6,4 km/h (2 Bft) 97,87 %
08.04.2022 18:36 8,5 C 8,3 C 4,4 C 69 % 997,4 hPa 0,0 l/m 0 min 0 min 98 W/m 9,7 km/h (2 Bft) 95,74 %
08.04.2022 18:38 8,4 C 8,3 C 4,4 C 69 % 997,5 hPa 0,0 l/m 0 min 0 min 93 W/m 6,4 km/h (2 Bft) 97,87 %
08.04.2022 18:40 8,5 C 8,3 C 4,4 C 70 % 997,5 hPa 0,0 l/m 0 min 0 min 91 W/m 6,4 km/h (2 Bft) 97,87 %
08.04.2022 18:42 8,5 C 8,3 C 4,4 C 71 % 997,5 hPa 0,0 l/m 0 min 0 min 88 W/m 3,2 km/h (1 Bft) 97,87 %
08.04.2022 18:44 8,4 C 7,8 C 4,4 C 71 % 997,5 hPa 0,0 l/m 0 min 0 min 82 W/m 12,9 km/h (3 Bft) 95,74 %
08.04.2022 18:46 8,4 C 7,8 C 4,4 C 71 % 997,5 hPa 0,0 l/m 0 min 0 min 82 W/m 6,4 km/h (2 Bft) 97,83 %
08.04.2022 18:48 8,4 C 7,8 C 4,4 C 71 % 997,4 hPa 0,0 l/m 0 min 0 min 84 W/m 9,7 km/h (2 Bft) 95,74 %
08.04.2022 18:50 8,4 C 8,3 C 4,4 C 71 % 997,5 hPa 0,0 l/m 0 min 0 min 84 W/m 6,4 km/h (2 Bft) 97,87 %
08.04.2022 18:52 8,4 C 7,8 C 4,4 C 71 % 997,5 hPa 0,0 l/m 0 min 0 min 80 W/m 3,2 km/h (1 Bft) 97,87 %
08.04.2022 18:54 8,4 C 7,8 C 4,4 C 71 % 997,5 hPa 0,0 l/m 0 min 0 min 75 W/m 6,4 km/h (2 Bft) 97,87 %
08.04.2022 18:56 8,4 C 7,8 C 4,4 C 71 % 997,5 hPa 0,0 l/m 0 min 0 min 69 W/m 3,2 km/h (1 Bft) 97,87 %
08.04.2022 18:58 8,4 C 7,8 C 4,4 C 71 % 997,5 hPa 0,0 l/m 0 min 0 min 65 W/m 3,2 km/h (1 Bft) 97,83 %
08.04.2022 19:00 8,4 C 7,8 C 4,4 C 72 % 997,5 hPa 0,0 l/m 0 min 0 min 62 W/m 6,4 km/h (2 Bft) 97,87 %
08.04.2022 19:02 8,4 C 7,8 C 4,4 C 72 % 997,5 hPa 0,0 l/m 0 min 0 min 60 W/m 6,4 km/h (2 Bft) 97,87 %
08.04.2022 19:04 8,4 C 7,8 C 4,4 C 72 % 997,6 hPa 0,0 l/m 0 min 0 min 56 W/m 6,4 km/h (2 Bft) 97,87 %
08.04.2022 19:06 8,3 C 7,8 C 4,4 C 72 % 997,6 hPa 0,0 l/m 0 min 0 min 53 W/m 6,4 km/h (2 Bft) 93,62 %
08.04.2022 19:08 8,3 C 7,8 C 4,4 C 72 % 997,6 hPa 0,0 l/m 0 min 0 min 52 W/m 6,4 km/h (2 Bft) 97,87 %
08.04.2022 19:10 8,3 C 7,8 C 4,4 C 72 % 997,6 hPa 0,0 l/m 0 min 0 min 51 W/m 3,2 km/h (1 Bft) 97,83 %
08.04.2022 19:12 8,2 C 7,8 C 4,4 C 72 % 997,6 hPa 0,0 l/m 0 min 0 min 51 W/m 3,2 km/h (1 Bft) 97,87 %
08.04.2022 19:14 8,2 C 7,8 C 4,4 C 72 % 997,7 hPa 0,0 l/m 0 min 0 min 47 W/m 6,4 km/h (2 Bft) 97,87 %
08.04.2022 19:16 8,2 C 7,8 C 4,4 C 72 % 997,6 hPa 0,0 l/m 0 min 0 min 41 W/m 6,4 km/h (2 Bft) 93,62 %
08.04.2022 19:18 8,2 C 7,2 C 4,4 C 73 % 997,6 hPa 0,0 l/m 0 min 0 min 34 W/m 6,4 km/h (2 Bft) 97,87 %
08.04.2022 19:20 8,2 C 7,2 C 3,9 C 73 % 997,7 hPa 0,0 l/m 0 min 0 min 31 W/m 3,2 km/h (1 Bft) 100,00 %
08.04.2022 19:22 8,2 C 7,2 C 3,9 C 73 % 997,6 hPa 0,0 l/m 0 min 0 min 29 W/m 3,2 km/h (1 Bft) 97,87 %
08.04.2022 19:24 8,1 C 7,2 C 3,9 C 74 % 997,7 hPa 0,0 l/m 0 min 0 min 27 W/m 3,2 km/h (1 Bft) 95,74 %
08.04.2022 19:26 8,1 C 7,2 C 3,9 C 74 % 997,7 hPa 0,0 l/m 0 min 0 min 25 W/m 3,2 km/h (1 Bft) 95,74 %
08.04.2022 19:28 8,1 C 7,2 C 3,9 C 74 % 997,7 hPa 0,0 l/m 0 min 0 min 21 W/m 3,2 km/h (1 Bft) 97,87 %
08.04.2022 19:30 8,1 C 7,2 C 3,9 C 74 % 997,7 hPa 0,0 l/m 0 min 0 min 17 W/m 6,4 km/h (2 Bft) 97,87 %
08.04.2022 19:32 8,1 C 7,2 C 3,9 C 74 % 997,6 hPa 0,0 l/m 0 min 0 min 13 W/m 3,2 km/h (1 Bft) 97,83 %
08.04.2022 19:34 8,1 C 7,2 C 3,9 C 74 % 997,7 hPa 0,0 l/m 0 min 0 min 10 W/m 3,2 km/h (1 Bft) 95,74 %
08.04.2022 19:36 8,1 C 7,2 C 3,9 C 74 % 997,7 hPa 0,0 l/m 0 min 0 min 8 W/m 3,2 km/h (1 Bft) 95,74 %
08.04.2022 19:38 8,0 C 7,2 C 3,9 C 74 % 997,7 hPa 0,0 l/m 0 min 0 min 7 W/m 0,0 km/h (0 Bft) 97,87 %
08.04.2022 19:40 8,0 C 7,2 C 3,9 C 74 % 997,7 hPa 0,0 l/m 0 min 0 min 7 W/m 0,0 km/h (0 Bft) 97,87 %
08.04.2022 19:42 8,0 C 7,2 C 3,9 C 75 % 997,7 hPa 0,0 l/m 0 min 0 min 7 W/m 3,2 km/h (1 Bft) 95,74 %
08.04.2022 19:44 8,0 C 7,2 C 3,9 C 75 % 997,7 hPa 0,0 l/m 0 min 0 min 7 W/m 3,2 km/h (1 Bft) 97,83 %
08.04.2022 19:46 8,0 C 7,2 C 3,9 C 75 % 997,7 hPa 0,0 l/m 0 min 0 min 8 W/m 6,4 km/h (2 Bft) 97,87 %
08.04.2022 19:48 7,9 C 7,2 C 3,9 C 75 % 997,7 hPa 0,0 l/m 0 min 0 min 9 W/m 3,2 km/h (1 Bft) 95,74 %
08.04.2022 19:50 7,9 C 7,2 C 3,9 C 75 % 997,7 hPa 0,0 l/m 0 min 0 min 10 W/m 3,2 km/h (1 Bft) 97,87 %
08.04.2022 19:52 7,9 C 7,2 C 3,9 C 75 % 997,7 hPa 0,0 l/m 0 min 0 min 10 W/m 3,2 km/h (1 Bft) 97,87 %
08.04.2022 19:54 7,9 C 7,2 C 3,9 C 75 % 997,7 hPa 0,0 l/m 0 min 0 min 9 W/m 3,2 km/h (1 Bft) 95,74 %
08.04.2022 19:56 7,9 C 7,2 C 3,9 C 75 % 997,7 hPa 0,0 l/m 0 min 0 min 9 W/m 3,2 km/h (1 Bft) 95,65 %
08.04.2022 19:58 7,9 C 7,2 C 3,9 C 75 % 997,6 hPa 0,0 l/m 0 min 0 min 7 W/m 3,2 km/h (1 Bft) 93,62 %
08.04.2022 20:00 7,9 C 7,2 C 3,9 C 75 % 997,6 hPa 0,0 l/m 0 min 0 min 7 W/m 3,2 km/h (1 Bft) 95,74 %
08.04.2022 20:02 7,8 C 7,2 C 3,9 C 75 % 997,6 hPa 0,0 l/m 0 min 0 min 7 W/m 3,2 km/h (1 Bft) 95,74 %
08.04.2022 20:04 7,8 C 7,2 C 3,9 C 75 % 997,6 hPa 0,0 l/m 0 min 0 min 7 W/m 3,2 km/h (1 Bft) 95,74 %
08.04.2022 20:06 7,8 C 7,2 C 3,9 C 75 % 997,6 hPa 0,0 l/m 0 min 0 min 7 W/m 3,2 km/h (1 Bft) 95,65 %
08.04.2022 20:08 7,8 C 6,7 C 3,3 C 76 % 997,6 hPa 0,0 l/m 0 min 0 min 5 W/m 6,4 km/h (2 Bft) 95,74 %
08.04.2022 20:10 7,7 C 6,7 C 3,3 C 76 % 997,6 hPa 0,0 l/m 0 min 0 min 5 W/m 6,4 km/h (2 Bft) 97,87 %
08.04.2022 20:12 7,7 C 6,7 C 3,3 C 76 % 997,6 hPa 0,0 l/m 0 min 0 min 0 W/m 3,2 km/h (1 Bft) 97,87 %
08.04.2022 20:14 7,7 C 6,7 C 3,3 C 76 % 997,6 hPa 0,0 l/m 0 min 0 min 0 W/m 3,2 km/h (1 Bft) 95,74 %
08.04.2022 20:16 7,7 C 6,7 C 3,3 C 76 % 997,6 hPa 0,0 l/m 0 min 0 min 0 W/m 6,4 km/h (2 Bft) 97,87 %
08.04.2022 20:18 7,7 C 6,7 C 3,3 C 76 % 997,6 hPa 0,0 l/m 0 min 0 min 0 W/m 3,2 km/h (1 Bft) 97,83 %
08.04.2022 20:20 7,6 C 6,7 C 3,3 C 77 % 997,7 hPa 0,0 l/m 0 min 0 min 0 W/m 6,4 km/h (2 Bft) 97,87 %
08.04.2022 20:22 7,6 C 6,7 C 3,3 C 77 % 997,7 hPa 0,0 l/m 0 min 0 min 0 W/m 3,2 km/h (1 Bft) 97,87 %
08.04.2022 20:24 7,6 C 6,7 C 3,3 C 77 % 997,7 hPa 0,0 l/m 0 min 0 min 0 W/m 3,2 km/h (1 Bft) 97,87 %
08.04.2022 20:26 7,6 C 6,7 C 3,3 C 77 % 997,8 hPa 0,0 l/m 0 min 0 min 0 W/m 3,2 km/h (1 Bft) 100,00 %
08.04.2022 20:28 7,5 C 6,7 C 3,3 C 78 % 997,8 hPa 0,0 l/m 0 min 0 min 0 W/m 6,4 km/h (2 Bft) 100,00 %
08.04.2022 20:30 7,5 C 6,7 C 3,3 C 78 % 997,8 hPa 0,0 l/m 0 min 0 min 0 W/m 6,4 km/h (2 Bft) 100,00 %
08.04.2022 20:32 7,4 C 6,7 C 3,3 C 77 % 997,9 hPa 0,0 l/m 0 min 0 min 0 W/m 6,4 km/h (2 Bft) 100,00 %
08.04.2022 20:34 7,4 C 6,7 C 3,3 C 77 % 997,9 hPa 0,0 l/m 0 min 0 min 0 W/m 12,9 km/h (3 Bft) 100,00 %
08.04.2022 20:36 7,4 C 6,7 C 3,3 C 77 % 997,9 hPa 0,0 l/m 0 min 0 min 0 W/m 12,9 km/h (3 Bft) 100,00 %
08.04.2022 20:38 7,4 C 6,7 C 3,3 C 76 % 997,9 hPa 0,0 l/m 0 min 0 min 0 W/m 12,9 km/h (3 Bft) 100,00 %
08.04.2022 20:40 7,3 C 6,7 C 3,3 C 76 % 998,0 hPa 0,0 l/m 0 min 0 min 0 W/m 9,7 km/h (2 Bft) 100,00 %
08.04.2022 20:42 7,3 C 6,7 C 3,3 C 75 % 997,9 hPa 0,0 l/m 0 min 0 min 0 W/m 19,3 km/h (3 Bft) 100,00 %
08.04.2022 20:44 7,3 C 6,7 C 3,3 C 74 % 997,9 hPa 0,0 l/m 0 min 0 min 0 W/m 12,9 km/h (3 Bft) 100,00 %
08.04.2022 20:46 7,3 C 6,7 C 3,3 C 74 % 997,9 hPa 0,0 l/m 0 min 0 min 0 W/m 9,7 km/h (2 Bft) 100,00 %
08.04.2022 20:48 7,3 C 6,7 C 3,3 C 73 % 997,9 hPa 0,0 l/m 0 min 0 min 0 W/m 12,9 km/h (3 Bft) 100,00 %
08.04.2022 20:50 7,3 C 6,7 C 3,3 C 73 % 998,0 hPa 0,0 l/m 0 min 0 min 0 W/m 6,4 km/h (2 Bft) 100,00 %
08.04.2022 20:52 7,3 C 6,7 C 3,3 C 73 % 998,0 hPa 0,0 l/m 0 min 0 min 0 W/m 16,1 km/h (3 Bft) 100,00 %
08.04.2022 20:54 7,3 C 6,7 C 3,3 C 73 % 998,0 hPa 0,0 l/m 0 min 0 min 0 W/m 9,7 km/h (2 Bft) 100,00 %
08.04.2022 20:56 7,2 C 6,7 C 3,3 C 73 % 998,0 hPa 0,0 l/m 0 min 0 min 0 W/m 6,4 km/h (2 Bft) 100,00 %
08.04.2022 20:58 7,2 C 6,7 C 3,3 C 73 % 998,1 hPa 0,0 l/m 0 min 0 min 0 W/m 12,9 km/h (3 Bft) 100,00 %
08.04.2022 21:00 7,2 C 6,7 C 3,3 C 73 % 998,1 hPa 0,0 l/m 0 min 0 min 0 W/m 19,3 km/h (3 Bft) 100,00 %
08.04.2022 21:02 7,2 C 6,7 C 3,3 C 73 % 998,1 hPa 0,0 l/m 0 min 0 min 0 W/m 12,9 km/h (3 Bft) 97,14 %
08.04.2022 21:04 7,2 C 6,7 C 3,3 C 73 % 998,2 hPa 0,0 l/m 0 min 0 min 0 W/m 6,4 km/h (2 Bft) 100,00 %
08.04.2022 21:06 7,2 C 6,7 C 3,3 C 73 % 998,2 hPa 0,0 l/m 0 min 0 min 0 W/m 9,7 km/h (2 Bft) 98,28 %
08.04.2022 21:08 7,2 C 6,7 C 2,8 C 74 % 998,3 hPa 0,0 l/m 0 min 0 min 0 W/m 19,3 km/h (3 Bft) 100,00 %
08.04.2022 21:10 7,2 C 6,7 C 3,3 C 74 % 998,4 hPa 0,0 l/m 0 min 0 min 0 W/m 9,7 km/h (2 Bft) 100,00 %
08.04.2022 21:12 7,2 C 6,7 C 3,3 C 74 % 998,3 hPa 0,0 l/m 0 min 0 min 0 W/m 16,1 km/h (3 Bft) 97,87 %
08.04.2022 21:14 7,2 C 6,7 C 3,3 C 74 % 998,4 hPa 0,0 l/m 0 min 0 min 0 W/m 9,7 km/h (2 Bft) 100,00 %
08.04.2022 21:16 7,2 C 6,1 C 3,3 C 74 % 998,5 hPa 0,0 l/m 0 min 0 min 0 W/m 19,3 km/h (3 Bft) 95,74 %
08.04.2022 21:18 7,2 C 6,1 C 2,8 C 74 % 998,5 hPa 0,0 l/m 0 min 0 min 0 W/m 16,1 km/h (3 Bft) 100,00 %
08.04.2022 21:20 7,2 C 6,1 C 2,8 C 75 % 998,5 hPa 0,0 l/m 0 min 0 min 0 W/m 16,1 km/h (3 Bft) 100,00 %
08.04.2022 21:22 7,2 C 6,1 C 2,8 C 75 % 998,5 hPa 0,0 l/m 0 min 0 min 0 W/m 19,3 km/h (3 Bft) 100,00 %
08.04.2022 21:24 7,1 C 6,1 C 2,8 C 75 % 998,5 hPa 0,0 l/m 0 min 0 min 0 W/m 16,1 km/h (3 Bft) 100,00 %
08.04.2022 21:26 7,1 C 6,1 C 2,8 C 75 % 998,6 hPa 0,0 l/m 0 min 0 min 0 W/m 12,9 km/h (3 Bft) 100,00 %
08.04.2022 21:28 7,1 C 6,1 C 2,8 C 75 % 998,6 hPa 0,0 l/m 0 min 0 min 0 W/m 12,9 km/h (3 Bft) 97,87 %
08.04.2022 21:30 7,1 C 6,1 C 2,8 C 76 % 998,6 hPa 0,0 l/m 0 min 0 min 0 W/m 12,9 km/h (3 Bft) 97,87 %
08.04.2022 21:32 7,1 C 6,1 C 2,8 C 76 % 998,6 hPa 0,0 l/m 0 min 0 min 0 W/m 16,1 km/h (3 Bft) 95,65 %
08.04.2022 21:34 7,1 C 6,1 C 2,8 C 76 % 998,6 hPa 0,0 l/m 0 min 0 min 0 W/m 16,1 km/h (3 Bft) 97,87 %
08.04.2022 21:36 7,1 C 6,1 C 2,8 C 76 % 998,7 hPa 0,0 l/m 0 min 0 min 0 W/m 16,1 km/h (3 Bft) 98,31 %
08.04.2022 21:38 7,1 C 6,1 C 2,8 C 76 % 998,7 hPa 0,0 l/m 0 min 0 min 0 W/m 25,7 km/h (4 Bft) 97,14 %
08.04.2022 21:40 7,1 C 6,1 C 2,8 C 77 % 998,7 hPa 0,0 l/m 0 min 0 min 0 W/m 12,9 km/h (3 Bft) 97,87 %
08.04.2022 21:42 7,1 C 6,1 C 2,8 C 77 % 998,8 hPa 0,0 l/m 0 min 0 min 0 W/m 16,1 km/h (3 Bft) 95,65 %
08.04.2022 21:44 7,1 C 6,1 C 2,8 C 77 % 998,8 hPa 0,0 l/m 0 min 0 min 0 W/m 12,9 km/h (3 Bft) 93,62 %
08.04.2022 21:46 7,1 C 6,1 C 2,8 C 77 % 998,7 hPa 0,0 l/m 0 min 0 min 0 W/m 19,3 km/h (3 Bft) 93,62 %
08.04.2022 21:48 7,1 C 6,1 C 2,8 C 77 % 998,7 hPa 0,0 l/m 0 min 0 min 0 W/m 16,1 km/h (3 Bft) 95,74 %
08.04.2022 21:50 7,1 C 6,1 C 2,8 C 77 % 998,7 hPa 0,0 l/m 0 min 0 min 0 W/m 12,9 km/h (3 Bft) 93,62 %
08.04.2022 21:52 7,0 C 6,1 C 2,8 C 77 % 998,7 hPa 0,0 l/m 0 min 0 min 0 W/m 12,9 km/h (3 Bft) 93,62 %
08.04.2022 21:54 7,0 C 6,1 C 2,8 C 77 % 998,8 hPa 0,0 l/m 0 min 0 min 0 W/m 16,1 km/h (3 Bft) 91,30 %
08.04.2022 21:56 6,9 C 6,1 C 2,8 C 78 % 998,8 hPa 0,0 l/m 0 min 0 min 0 W/m 19,3 km/h (3 Bft) 89,36 %
08.04.2022 21:58 6,9 C 6,1 C 2,8 C 77 % 998,9 hPa 0,0 l/m 0 min 0 min 0 W/m 19,3 km/h (3 Bft) 93,62 %
08.04.2022 22:00 6,9 C 6,1 C 2,8 C 77 % 998,9 hPa 0,0 l/m 0 min 0 min 0 W/m 16,1 km/h (3 Bft) 91,49 %
08.04.2022 22:02 6,9 C 6,1 C 2,8 C 77 % 999,0 hPa 0,0 l/m 0 min 0 min 0 W/m 16,1 km/h (3 Bft) 89,36 %
08.04.2022 22:04 6,9 C 6,1 C 2,8 C 77 % 999,0 hPa 0,0 l/m 0 min 0 min 0 W/m 22,5 km/h (4 Bft) 91,49 %
08.04.2022 22:06 6,8 C 6,1 C 2,8 C 77 % 999,0 hPa 0,0 l/m 0 min 0 min 0 W/m 16,1 km/h (3 Bft) 94,83 %
08.04.2022 22:08 6,8 C 6,1 C 2,8 C 77 % 999,1 hPa 0,0 l/m 0 min 0 min 0 W/m 16,1 km/h (3 Bft) 91,43 %
08.04.2022 22:10 6,8 C 6,1 C 2,8 C 78 % 999,1 hPa 0,0 l/m 0 min 0 min 0 W/m 9,7 km/h (2 Bft) 93,62 %
08.04.2022 22:12 6,8 C 6,1 C 2,8 C 78 % 999,1 hPa 0,0 l/m 0 min 0 min 0 W/m 19,3 km/h (3 Bft) 93,62 %
08.04.2022 22:14 6,8 C 6,1 C 2,8 C 78 % 999,2 hPa 0,0 l/m 0 min 0 min 0 W/m 12,9 km/h (3 Bft) 93,62 %
08.04.2022 22:16 6,7 C 6,1 C 2,8 C 78 % 999,3 hPa 0,0 l/m 0 min 0 min 0 W/m 16,1 km/h (3 Bft) 95,74 %
08.04.2022 22:18 6,7 C 5,6 C 2,8 C 78 % 999,3 hPa 0,0 l/m 0 min 0 min 0 W/m 9,7 km/h (2 Bft) 95,65 %
08.04.2022 22:20 6,7 C 5,6 C 2,2 C 78 % 999,3 hPa 0,0 l/m 0 min 0 min 0 W/m 12,9 km/h (3 Bft) 93,62 %
08.04.2022 22:22 6,7 C 5,6 C 2,2 C 78 % 999,3 hPa 0,0 l/m 0 min 0 min 0 W/m 9,7 km/h (2 Bft) 93,62 %
08.04.2022 22:24 6,6 C 5,6 C 2,2 C 78 % 999,4 hPa 0,0 l/m 0 min 0 min 0 W/m 16,1 km/h (3 Bft) 95,74 %
08.04.2022 22:26 6,6 C 5,6 C 2,2 C 79 % 999,4 hPa 0,0 l/m 0 min 0 min 0 W/m 16,1 km/h (3 Bft) 97,87 %
08.04.2022 22:28 6,6 C 5,6 C 2,2 C 79 % 999,5 hPa 0,0 l/m 0 min 0 min 0 W/m 9,7 km/h (2 Bft) 97,87 %
08.04.2022 22:30 6,6 C 5,6 C 2,2 C 79 % 999,4 hPa 0,0 l/m 0 min 0 min 0 W/m 9,7 km/h (2 Bft) 95,65 %
08.04.2022 22:32 6,5 C 5,6 C 2,2 C 79 % 999,5 hPa 0,0 l/m 0 min 0 min 0 W/m 9,7 km/h (2 Bft) 95,74 %
08.04.2022 22:34 6,5 C 5,6 C 2,2 C 79 % 999,5 hPa 0,0 l/m 0 min 0 min 0 W/m 9,7 km/h (2 Bft) 95,74 %
08.04.2022 22:36 6,5 C 5,6 C 2,2 C 80 % 999,6 hPa 0,0 l/m 0 min 0 min 0 W/m 9,7 km/h (2 Bft) 54,55 %
08.04.2022 22:38 6,5 C 5,6 C 2,2 C 80 % 999,6 hPa 0,0 l/m 0 min 0 min 0 W/m 12,9 km/h (3 Bft) 100,00 %
08.04.2022 22:40 6,4 C 5,6 C 2,2 C 80 % 999,6 hPa 0,0 l/m 0 min 0 min 0 W/m 16,1 km/h (3 Bft) 100,00 %
08.04.2022 22:42 6,4 C 5,6 C 2,2 C 80 % 999,6 hPa 0,0 l/m 0 min 0 min 0 W/m 12,9 km/h (3 Bft) 97,87 %
08.04.2022 22:44 6,4 C 5,6 C 2,2 C 80 % 999,7 hPa 0,0 l/m 0 min 0 min 0 W/m 9,7 km/h (2 Bft) 100,00 %
08.04.2022 22:46 6,4 C 5,6 C 2,2 C 80 % 999,7 hPa 0,0 l/m 0 min 0 min 0 W/m 6,4 km/h (2 Bft) 100,00 %
08.04.2022 22:48 6,4 C 5,6 C 2,2 C 80 % 999,7 hPa 0,0 l/m 0 min 0 min 0 W/m 9,7 km/h (2 Bft) 97,87 %
08.04.2022 22:50 6,4 C 5,6 C 2,2 C 80 % 999,7 hPa 0,0 l/m 0 min 0 min 0 W/m 12,9 km/h (3 Bft) 100,00 %
08.04.2022 22:52 6,4 C 5,6 C 2,2 C 80 % 999,8 hPa 0,0 l/m 0 min 0 min 0 W/m 12,9 km/h (3 Bft) 100,00 %
08.04.2022 22:54 6,4 C 5,6 C 2,2 C 80 % 999,7 hPa 0,0 l/m 0 min 0 min 0 W/m 9,7 km/h (2 Bft) 100,00 %
08.04.2022 22:56 6,4 C 6,1 C 2,2 C 80 % 999,8 hPa 0,0 l/m 0 min 0 min 0 W/m 16,1 km/h (3 Bft) 100,00 %
08.04.2022 22:58 6,4 C 5,6 C 2,2 C 79 % 999,8 hPa 0,0 l/m 0 min 0 min 0 W/m 12,9 km/h (3 Bft) 100,00 %
08.04.2022 23:00 6,4 C 5,6 C 2,2 C 79 % 999,8 hPa 0,0 l/m 0 min 0 min 0 W/m 9,7 km/h (2 Bft) 97,87 %
08.04.2022 23:02 6,3 C 5,6 C 2,2 C 79 % 999,9 hPa 0,0 l/m 0 min 0 min 0 W/m 9,7 km/h (2 Bft) 100,00 %
08.04.2022 23:04 6,3 C 5,6 C 2,2 C 79 % 999,9 hPa 0,0 l/m 0 min 0 min 0 W/m 12,9 km/h (3 Bft) 97,83 %
08.04.2022 23:06 6,3 C 5,6 C 2,2 C 79 % 999,9 hPa 0,0 l/m 0 min 0 min 0 W/m 9,7 km/h (2 Bft) 98,31 %
08.04.2022 23:08 6,3 C 5,6 C 2,2 C 78 % 999,9 hPa 0,0 l/m 0 min 0 min 0 W/m 9,7 km/h (2 Bft) 97,87 %
08.04.2022 23:10 6,3 C 5,6 C 2,2 C 78 % 999,9 hPa 0,0 l/m 0 min 0 min 0 W/m 6,4 km/h (2 Bft) 100,00 %
08.04.2022 23:12 6,3 C 5,6 C 2,2 C 78 % 1000,0 hPa 0,0 l/m 0 min 0 min 0 W/m 6,4 km/h (2 Bft) 100,00 %
08.04.2022 23:14 6,3 C 5,6 C 2,2 C 78 % 1000,0 hPa 0,0 l/m 0 min 0 min 0 W/m 9,7 km/h (2 Bft) 100,00 %
08.04.2022 23:16 6,3 C 5,6 C 2,2 C 78 % 1000,1 hPa 0,0 l/m 0 min 0 min 0 W/m 19,3 km/h (3 Bft) 100,00 %
08.04.2022 23:18 6,2 C 5,6 C 2,2 C 78 % 1000,1 hPa 0,0 l/m 0 min 0 min 0 W/m 12,9 km/h (3 Bft) 100,00 %
08.04.2022 23:20 6,2 C 5,6 C 2,2 C 78 % 1000,1 hPa 0,0 l/m 0 min 0 min 0 W/m 12,9 km/h (3 Bft) 100,00 %
08.04.2022 23:22 6,2 C 5,6 C 2,2 C 78 % 1000,1 hPa 0,0 l/m 0 min 0 min 0 W/m 12,9 km/h (3 Bft) 100,00 %
08.04.2022 23:24 6,2 C 5,6 C 2,2 C 78 % 1000,2 hPa 0,0 l/m 0 min 0 min 0 W/m 9,7 km/h (2 Bft) 100,00 %
08.04.2022 23:26 6,2 C 5,6 C 2,2 C 78 % 1000,2 hPa 0,0 l/m 0 min 0 min 0 W/m 12,9 km/h (3 Bft) 97,83 %
08.04.2022 23:28 6,2 C 5,6 C 2,2 C 78 % 1000,3 hPa 0,0 l/m 0 min 0 min 0 W/m 9,7 km/h (2 Bft) 100,00 %
08.04.2022 23:30 6,2 C 5,6 C 1,7 C 78 % 1000,4 hPa 0,0 l/m 0 min 0 min 0 W/m 12,9 km/h (3 Bft) 100,00 %
08.04.2022 23:32 6,1 C 5,6 C 2,2 C 78 % 1000,4 hPa 0,0 l/m 0 min 0 min 0 W/m 12,9 km/h (3 Bft) 97,87 %
08.04.2022 23:34 6,1 C 5,6 C 1,7 C 78 % 1000,4 hPa 0,0 l/m 0 min 0 min 0 W/m 9,7 km/h (2 Bft) 97,87 %
08.04.2022 23:36 6,0 C 5,0 C 1,7 C 78 % 1000,4 hPa 0,0 l/m 0 min 0 min 0 W/m 16,1 km/h (3 Bft) 97,87 %
08.04.2022 23:38 6,0 C 5,0 C 1,7 C 78 % 1000,5 hPa 0,0 l/m 0 min 0 min 0 W/m 12,9 km/h (3 Bft) 93,62 %
08.04.2022 23:40 6,0 C 5,0 C 1,7 C 78 % 1000,5 hPa 0,0 l/m 0 min 0 min 0 W/m 9,7 km/h (2 Bft) 95,65 %
08.04.2022 23:42 5,9 C 5,0 C 1,7 C 78 % 1000,6 hPa 0,0 l/m 0 min 0 min 0 W/m 12,9 km/h (3 Bft) 97,87 %
08.04.2022 23:44 5,9 C 5,0 C 1,7 C 78 % 1000,6 hPa 0,0 l/m 0 min 0 min 0 W/m 12,9 km/h (3 Bft) 97,87 %
08.04.2022 23:46 5,8 C 5,0 C 1,7 C 78 % 1000,7 hPa 0,0 l/m 0 min 0 min 0 W/m 12,9 km/h (3 Bft) 97,87 %
08.04.2022 23:48 5,8 C 5,0 C 1,7 C 78 % 1000,8 hPa 0,0 l/m 0 min 0 min 0 W/m 6,4 km/h (2 Bft) 97,87 %
08.04.2022 23:50 5,7 C 5,0 C 1,7 C 79 % 1000,8 hPa 0,0 l/m 0 min 0 min 0 W/m 9,7 km/h (2 Bft) 97,83 %
08.04.2022 23:52 5,7 C 5,0 C 1,7 C 79 % 1000,8 hPa 0,0 l/m 0 min 0 min 0 W/m 12,9 km/h (3 Bft) 97,87 %
08.04.2022 23:54 5,6 C 4,4 C 1,7 C 79 % 1000,9 hPa 0,0 l/m 0 min 0 min 0 W/m 6,4 km/h (2 Bft) 97,87 %
08.04.2022 23:56 5,6 C 4,4 C 1,7 C 80 % 1000,9 hPa 0,0 l/m 0 min 0 min 0 W/m 3,2 km/h (1 Bft) 97,87 %
08.04.2022 23:58 5,6 C 4,4 C 1,1 C 80 % 1001,0 hPa 0,0 l/m 0 min 0 min 0 W/m 6,4 km/h (2 Bft) 100,00 %
_ Min-Zeit 07:14 07:14 06:44 15:38 00:02 - - - - 19:38 16:28
Minimum _ 4,4 C 3,3 C 1,1 C 63 % 994,6 hPa - - - - 0,0 km/h (0 Bft) 48,78 %
_ Max-Zeit 16:48 15:54 13:38 07:42 23:58 00:00 09:02 00:30 15:54 01:34 00:12
Maximum _ 8,8 C 9,4 C 5,6 C 93 % 1001,0 hPa 0,0 l/m 2 min 2 min 295 W/m 41,8 km/h
O-SO (6 Bft)
100,00 %
Durchschnitt _ 6,9 C 6,6 C 3,5 C 80 % 998,5 hPa #0,0 l/m #18 min. #2 min. 163 W/m 11,7 km/h (2 Bft) 97,45 %
© 2022 W. Hausmann